Time,TemperatureF,DewpointF,PressureIn,WindDirection,WindDirectionDegrees,WindSpeedMPH,WindSpeedGustMPH,Humidity,HourlyPrecipIn,Conditions,Clouds,dailyrainin,SoftwareType,DateUTC
2013-07-07 00:00:00,77.4,67.7,29.71,East,91,3.0,4.0,72,0.00,,,0.00,Wunderground v.1.13,2013-07-07 05:00:00,
2013-07-07 00:01:00,77.4,67.7,29.71,East,91,3.0,4.0,72,0.00,,,0.00,Wunderground v.1.13,2013-07-07 05:01:00,
2013-07-07 00:04:00,77.4,67.7,29.71,East,91,3.0,4.0,72,0.00,,,0.00,Wunderground v.1.13,2013-07-07 05:04:00,
2013-07-07 00:06:00,77.4,67.3,29.71,East,91,3.0,3.0,71,0.00,,,0.00,Wunderground v.1.13,2013-07-07 05:06:00,
2013-07-07 00:08:00,77.3,66.7,29.71,East,91,2.0,3.0,70,0.00,,,0.00,Wunderground v.1.13,2013-07-07 05:08:00,
2013-07-07 00:09:00,77.4,66.4,29.71,East,91,2.0,3.0,69,0.00,,,0.00,Wunderground v.1.13,2013-07-07 05:09:00,
2013-07-07 00:10:00,77.4,66.4,29.71,East,91,2.0,2.0,69,0.00,,,0.00,Wunderground v.1.13,2013-07-07 05:10:00,
2013-07-07 00:11:00,77.4,66.8,29.71,East,91,1.0,2.0,70,0.00,,,0.00,Wunderground v.1.13,2013-07-07 05:11:00,
2013-07-07 00:12:00,77.4,66.4,29.71,East,91,1.0,2.0,69,0.00,,,0.00,Wunderground v.1.13,2013-07-07 05:12:00,
2013-07-07 00:14:00,77.4,66.0,29.71,East,91,1.0,2.0,68,0.00,,,0.00,Wunderground v.1.13,2013-07-07 05:14:00,
2013-07-07 00:15:00,77.4,65.6,29.71,SSW,202,1.0,1.0,67,0.00,,,0.00,Wunderground v.1.13,2013-07-07 05:15:00,
2013-07-07 00:16:00,77.5,65.7,29.71,SSW,202,1.0,1.0,67,0.00,,,0.00,Wunderground v.1.13,2013-07-07 05:16:00,
2013-07-07 00:18:00,77.5,65.7,29.71,South,185,1.0,1.0,67,0.00,,,0.00,Wunderground v.1.13,2013-07-07 05:18:00,
2013-07-07 00:20:00,77.7,65.9,29.71,South,179,1.0,2.0,67,0.00,,,0.00,Wunderground v.1.13,2013-07-07 05:20:00,
2013-07-07 00:21:00,77.7,65.4,29.71,South,180,1.0,2.0,66,0.00,,,0.00,Wunderground v.1.13,2013-07-07 05:21:00,
2013-07-07 00:23:00,77.8,65.5,29.71,South,179,1.0,2.0,66,0.00,,,0.00,Wunderground v.1.13,2013-07-07 05:23:00,
2013-07-07 00:24:00,77.9,65.2,29.71,South,179,1.0,2.0,65,0.00,,,0.00,Wunderground v.1.13,2013-07-07 05:24:00,
2013-07-07 00:25:00,77.9,65.6,29.70,South,178,1.0,5.0,66,0.00,,,0.00,Wunderground v.1.13,2013-07-07 05:25:00,
2013-07-07 00:28:00,78.1,64.9,29.71,West,271,1.0,5.0,64,0.00,,,0.00,Wunderground v.1.13,2013-07-07 05:28:00,
2013-07-07 00:29:00,78.1,64.9,29.70,West,271,1.0,5.0,64,0.00,,,0.00,Wunderground v.1.13,2013-07-07 05:29:00,
2013-07-07 00:31:00,78.2,65.0,29.70,SE,130,1.0,1.0,64,0.00,,,0.00,Wunderground v.1.13,2013-07-07 05:31:00,
2013-07-07 00:35:00,78.5,64.9,29.70,SE,130,1.0,1.0,63,0.00,,,0.00,Wunderground v.1.13,2013-07-07 05:35:00,
2013-07-07 00:37:00,78.6,64.5,29.71,SSE,165,1.0,1.0,62,0.00,,,0.00,Wunderground v.1.13,2013-07-07 05:37:00,
2013-07-07 00:41:00,78.8,64.2,29.71,SW,232,2.0,4.0,61,0.00,,,0.00,Wunderground v.1.13,2013-07-07 05:41:00,
2013-07-07 00:43:00,78.9,64.3,29.71,SW,221,2.0,4.0,61,0.00,,,0.00,Wunderground v.1.13,2013-07-07 05:43:00,
2013-07-07 00:44:00,78.9,64.3,29.71,SSW,195,1.0,4.0,61,0.00,,,0.00,Wunderground v.1.13,2013-07-07 05:44:00,
2013-07-07 00:46:00,79.0,64.4,29.71,SSW,195,1.0,1.0,61,0.00,,,0.00,Wunderground v.1.13,2013-07-07 05:46:00,
2013-07-07 00:49:00,79.1,64.0,29.71,SSW,199,1.0,2.0,60,0.00,,,0.00,Wunderground v.1.13,2013-07-07 05:49:00,
2013-07-07 00:50:00,79.1,64.0,29.71,SSW,199,1.0,1.0,60,0.00,,,0.00,Wunderground v.1.13,2013-07-07 05:50:00,
2013-07-07 00:51:00,79.1,64.0,29.71,SW,230,1.0,1.0,60,0.00,,,0.00,Wunderground v.1.13,2013-07-07 05:51:00,
2013-07-07 00:52:00,79.1,64.0,29.71,SE,131,1.0,2.0,60,0.00,,,0.00,Wunderground v.1.13,2013-07-07 05:52:00,
2013-07-07 00:54:00,79.1,64.0,29.70,South,169,1.0,2.0,60,0.00,,,0.00,Wunderground v.1.13,2013-07-07 05:54:00,
2013-07-07 00:57:00,79.1,63.5,29.70,SW,215,2.0,4.0,59,0.00,,,0.00,Wunderground v.1.13,2013-07-07 05:57:00,
2013-07-07 00:59:00,79.1,63.5,29.70,SSE,148,2.0,4.0,59,0.00,,,0.00,Wunderground v.1.13,2013-07-07 05:59:00,
2013-07-07 01:00:00,79.1,63.5,29.70,SW,227,2.0,2.0,59,0.00,,,0.00,Wunderground v.1.13,2013-07-07 06:00:00,
2013-07-07 01:01:00,79.1,63.5,29.70,SW,227,2.0,2.0,59,0.00,,,0.00,Wunderground v.1.13,2013-07-07 06:01:00,
2013-07-07 01:06:00,79.2,63.6,29.70,WSW,241,1.0,4.0,59,0.00,,,0.00,Wunderground v.1.13,2013-07-07 06:06:00,
2013-07-07 01:08:00,79.2,63.6,29.70,SE,146,1.0,4.0,59,0.00,,,0.00,Wunderground v.1.13,2013-07-07 06:08:00,
2013-07-07 01:14:00,79.1,63.5,29.70,SE,132,2.0,4.0,59,0.00,,,0.00,Wunderground v.1.13,2013-07-07 06:14:00,
2013-07-07 01:17:00,79.1,63.5,29.70,SW,227,2.0,2.0,59,0.00,,,0.00,Wunderground v.1.13,2013-07-07 06:17:00,
2013-07-07 01:18:00,79.1,63.5,29.70,SSW,212,2.0,2.0,59,0.00,,,0.00,Wunderground v.1.13,2013-07-07 06:18:00,
2013-07-07 01:19:00,79.1,63.5,29.70,SSW,209,2.0,4.0,59,0.00,,,0.00,Wunderground v.1.13,2013-07-07 06:19:00,
2013-07-07 01:20:00,79.1,63.5,29.70,SW,234,2.0,2.0,59,0.00,,,0.00,Wunderground v.1.13,2013-07-07 06:20:00,
2013-07-07 01:25:00,79.1,64.0,29.70,South,183,2.0,2.0,60,0.00,,,0.00,Wunderground v.1.13,2013-07-07 06:25:00,
2013-07-07 01:26:00,79.1,64.0,29.70,South,184,2.0,2.0,60,0.00,,,0.00,Wunderground v.1.13,2013-07-07 06:26:00,
2013-07-07 01:27:00,79.1,64.0,29.70,South,184,1.0,2.0,60,0.00,,,0.00,Wunderground v.1.13,2013-07-07 06:27:00,
2013-07-07 01:28:00,79.1,64.0,29.70,South,182,1.0,4.0,60,0.00,,,0.00,Wunderground v.1.13,2013-07-07 06:28:00,
2013-07-07 01:33:00,79.0,63.9,29.70,SW,214,1.0,2.0,60,0.00,,,0.00,Wunderground v.1.13,2013-07-07 06:33:00,
2013-07-07 01:34:00,79.0,63.9,29.70,SW,214,1.0,2.0,60,0.00,,,0.00,Wunderground v.1.13,2013-07-07 06:34:00,
2013-07-07 01:35:00,78.9,63.8,29.70,SSE,148,1.0,1.0,60,0.00,,,0.00,Wunderground v.1.13,2013-07-07 06:35:00,
2013-07-07 01:40:00,78.8,63.7,29.70,SW,219,1.0,5.0,60,0.00,,,0.00,Wunderground v.1.13,2013-07-07 06:40:00,
2013-07-07 01:42:00,78.8,63.7,29.70,SW,225,1.0,5.0,60,0.00,,,0.00,Wunderground v.1.13,2013-07-07 06:42:00,
2013-07-07 01:43:00,78.8,63.7,29.70,SW,225,1.0,5.0,60,0.00,,,0.00,Wunderground v.1.13,2013-07-07 06:43:00,
2013-07-07 01:46:00,78.8,63.7,29.70,SSW,211,1.0,2.0,60,0.00,,,0.00,Wunderground v.1.13,2013-07-07 06:46:00,
2013-07-07 01:48:00,78.8,63.7,29.70,WSW,241,2.0,2.0,60,0.00,,,0.00,Wunderground v.1.13,2013-07-07 06:48:00,
2013-07-07 01:49:00,78.8,64.2,29.70,ENE,76,2.0,4.0,61,0.00,,,0.00,Wunderground v.1.13,2013-07-07 06:49:00,
2013-07-07 01:51:00,78.8,64.2,29.70,East,91,1.0,2.0,61,0.00,,,0.00,Wunderground v.1.13,2013-07-07 06:51:00,
2013-07-07 01:52:00,78.8,64.2,29.70,East,94,1.0,3.0,61,0.00,,,0.00,Wunderground v.1.13,2013-07-07 06:52:00,
2013-07-07 01:54:00,78.7,64.1,29.70,ESE,123,2.0,3.0,61,0.00,,,0.00,Wunderground v.1.13,2013-07-07 06:54:00,
2013-07-07 01:56:00,78.7,64.1,29.70,East,98,2.0,2.0,61,0.00,,,0.00,Wunderground v.1.13,2013-07-07 06:56:00,
2013-07-07 01:57:00,78.7,64.1,29.70,East,98,1.0,2.0,61,0.00,,,0.00,Wunderground v.1.13,2013-07-07 06:57:00,
2013-07-07 01:58:00,78.7,64.1,29.70,ESE,115,2.0,2.0,61,0.00,,,0.00,Wunderground v.1.13,2013-07-07 06:58:00,
2013-07-07 01:59:00,78.6,64.0,29.70,ESE,115,1.0,2.0,61,0.00,,,0.00,Wunderground v.1.13,2013-07-07 06:59:00,
2013-07-07 02:03:00,78.6,64.0,29.70,WSW,245,1.0,4.0,61,0.00,,,0.00,Wunderground v.1.13,2013-07-07 07:03:00,
2013-07-07 02:04:00,78.6,64.5,29.70,ESE,121,1.0,4.0,62,0.00,,,0.00,Wunderground v.1.13,2013-07-07 07:04:00,
2013-07-07 02:06:00,78.5,64.4,29.70,ESE,121,1.0,2.0,62,0.00,,,0.00,Wunderground v.1.13,2013-07-07 07:06:00,
2013-07-07 02:07:00,78.5,64.4,29.70,ESE,121,1.0,2.0,62,0.00,,,0.00,Wunderground v.1.13,2013-07-07 07:07:00,
2013-07-07 02:09:00,78.5,64.4,29.70,SSW,207,1.0,2.0,62,0.00,,,0.00,Wunderground v.1.13,2013-07-07 07:09:00,
2013-07-07 02:12:00,78.4,64.3,29.70,West,267,1.0,2.0,62,0.00,,,0.00,Wunderground v.1.13,2013-07-07 07:12:00,
2013-07-07 02:13:00,78.4,64.3,29.70,West,259,1.0,2.0,62,0.00,,,0.00,Wunderground v.1.13,2013-07-07 07:13:00,
2013-07-07 02:16:00,78.4,64.3,29.70,WSW,241,1.0,3.0,62,0.00,,,0.00,Wunderground v.1.13,2013-07-07 07:16:00,
2013-07-07 02:17:00,78.3,64.2,29.70,South,176,1.0,3.0,62,0.00,,,0.00,Wunderground v.1.13,2013-07-07 07:17:00,
2013-07-07 02:18:00,78.3,64.2,29.70,South,176,1.0,3.0,62,0.00,,,0.00,Wunderground v.1.13,2013-07-07 07:18:00,
2013-07-07 02:20:00,78.3,64.2,29.70,South,176,1.0,1.0,62,0.00,,,0.00,Wunderground v.1.13,2013-07-07 07:20:00,
2013-07-07 02:21:00,78.2,64.1,29.70,South,176,1.0,1.0,62,0.00,,,0.00,Wunderground v.1.13,2013-07-07 07:21:00,
2013-07-07 02:24:00,78.2,64.6,29.70,South,177,0.0,1.0,63,0.00,,,0.00,Wunderground v.1.13,2013-07-07 07:24:00,
2013-07-07 02:26:00,78.2,64.6,29.70,South,177,0.0,0.0,63,0.00,,,0.00,Wunderground v.1.13,2013-07-07 07:26:00,
2013-07-07 02:27:00,78.1,64.5,29.70,WSW,247,0.0,2.0,63,0.00,,,0.00,Wunderground v.1.13,2013-07-07 07:27:00,
2013-07-07 02:29:00,78.1,64.5,29.70,SE,134,0.0,4.0,63,0.00,,,0.00,Wunderground v.1.13,2013-07-07 07:29:00,
2013-07-07 02:33:00,78.0,64.4,29.70,SE,134,1.0,1.0,63,0.00,,,0.00,Wunderground v.1.13,2013-07-07 07:33:00,
2013-07-07 02:34:00,78.0,64.4,29.70,SE,134,1.0,1.0,63,0.00,,,0.00,Wunderground v.1.13,2013-07-07 07:34:00,
2013-07-07 02:36:00,77.9,64.3,29.70,South,190,1.0,2.0,63,0.00,,,0.00,Wunderground v.1.13,2013-07-07 07:36:00,
2013-07-07 02:37:00,77.9,64.3,29.70,South,190,1.0,2.0,63,0.00,,,0.00,Wunderground v.1.13,2013-07-07 07:37:00,
2013-07-07 02:41:00,77.8,64.6,29.70,SW,222,1.0,3.0,64,0.00,,,0.00,Wunderground v.1.13,2013-07-07 07:41:00,
2013-07-07 02:44:00,77.8,64.6,29.70,SSE,158,1.0,3.0,64,0.00,,,0.00,Wunderground v.1.13,2013-07-07 07:44:00,
2013-07-07 02:46:00,77.7,64.5,29.70,SSW,202,1.0,1.0,64,0.00,,,0.00,Wunderground v.1.13,2013-07-07 07:46:00,
2013-07-07 02:48:00,77.7,64.5,29.70,SSE,155,1.0,1.0,64,0.00,,,0.00,Wunderground v.1.13,2013-07-07 07:48:00,
2013-07-07 02:49:00,77.7,64.5,29.70,SSE,155,1.0,2.0,64,0.00,,,0.00,Wunderground v.1.13,2013-07-07 07:49:00,
2013-07-07 02:50:00,77.6,64.5,29.70,SSE,155,1.0,1.0,64,0.00,,,0.00,Wunderground v.1.13,2013-07-07 07:50:00,
2013-07-07 02:51:00,77.6,64.9,29.70,SSE,155,1.0,1.0,65,0.00,,,0.00,Wunderground v.1.13,2013-07-07 07:51:00,
2013-07-07 02:53:00,77.5,64.8,29.70,SSE,155,1.0,1.0,65,0.00,,,0.00,Wunderground v.1.13,2013-07-07 07:53:00,
2013-07-07 02:54:00,77.5,64.8,29.70,SSE,155,1.0,1.0,65,0.00,,,0.00,Wunderground v.1.13,2013-07-07 07:54:00,
2013-07-07 02:55:00,77.5,64.8,29.70,SSE,155,1.0,1.0,65,0.00,,,0.00,Wunderground v.1.13,2013-07-07 07:55:00,
2013-07-07 02:58:00,77.3,64.6,29.70,SSE,155,0.0,2.0,65,0.00,,,0.00,Wunderground v.1.13,2013-07-07 07:58:00,
2013-07-07 03:00:00,77.3,64.6,29.70,SSE,155,0.0,2.0,65,0.00,,,0.00,Wunderground v.1.13,2013-07-07 08:00:00,
2013-07-07 03:01:00,77.3,64.6,29.70,SSE,155,1.0,2.0,65,0.00,,,0.00,Wunderground v.1.13,2013-07-07 08:01:00,
2013-07-07 03:03:00,77.2,64.5,29.70,SSE,155,1.0,2.0,65,0.00,,,0.00,Wunderground v.1.13,2013-07-07 08:03:00,
2013-07-07 03:06:00,77.2,64.5,29.70,SSE,155,1.0,1.0,65,0.00,,,0.00,Wunderground v.1.13,2013-07-07 08:06:00,
2013-07-07 03:07:00,77.1,64.4,29.70,SSE,155,1.0,1.0,65,0.00,,,0.00,Wunderground v.1.13,2013-07-07 08:07:00,
2013-07-07 03:09:00,77.1,64.9,29.70,SSE,155,0.0,1.0,66,0.00,,,0.00,Wunderground v.1.13,2013-07-07 08:09:00,
2013-07-07 03:10:00,77.1,64.9,29.70,SSE,155,0.0,0.0,66,0.00,,,0.00,Wunderground v.1.13,2013-07-07 08:10:00,
2013-07-07 03:13:00,77.0,64.8,29.71,SSE,155,0.0,0.0,66,0.00,,,0.00,Wunderground v.1.13,2013-07-07 08:13:00,
2013-07-07 03:14:00,77.0,64.8,29.71,SSE,155,0.0,0.0,66,0.00,,,0.00,Wunderground v.1.13,2013-07-07 08:14:00,
2013-07-07 03:18:00,76.8,65.0,29.71,SSE,155,0.0,0.0,67,0.00,,,0.00,Wunderground v.1.13,2013-07-07 08:18:00,
2013-07-07 03:19:00,76.8,65.0,29.71,SSE,155,0.0,0.0,67,0.00,,,0.00,Wunderground v.1.13,2013-07-07 08:19:00,
2013-07-07 03:20:00,76.7,64.9,29.71,SSE,155,0.0,0.0,67,0.00,,,0.00,Wunderground v.1.13,2013-07-07 08:20:00,
2013-07-07 03:23:00,76.6,64.8,29.71,SSE,155,0.0,0.0,67,0.00,,,0.00,Wunderground v.1.13,2013-07-07 08:23:00,
2013-07-07 03:26:00,76.6,64.8,29.71,SSE,155,0.0,2.0,67,0.00,,,0.00,Wunderground v.1.13,2013-07-07 08:26:00,
2013-07-07 03:27:00,76.6,64.8,29.71,SSE,155,0.0,2.0,67,0.00,,,0.00,Wunderground v.1.13,2013-07-07 08:27:00,
2013-07-07 03:28:00,76.5,64.7,29.71,SSE,155,0.0,2.0,67,0.00,,,0.00,Wunderground v.1.13,2013-07-07 08:28:00,
2013-07-07 03:32:00,76.5,64.7,29.71,SSE,155,0.0,1.0,67,0.00,,,0.00,Wunderground v.1.13,2013-07-07 08:32:00,
2013-07-07 03:33:00,76.4,64.6,29.71,SSE,155,0.0,1.0,67,0.00,,,0.00,Wunderground v.1.13,2013-07-07 08:33:00,
2013-07-07 03:35:00,76.4,65.1,29.71,SSE,155,0.0,0.0,68,0.00,,,0.00,Wunderground v.1.13,2013-07-07 08:35:00,
2013-07-07 03:37:00,76.4,65.1,29.71,SSE,155,0.0,0.0,68,0.00,,,0.00,Wunderground v.1.13,2013-07-07 08:37:00,
2013-07-07 03:38:00,76.4,65.1,29.71,SSE,155,0.0,0.0,68,0.00,,,0.00,Wunderground v.1.13,2013-07-07 08:38:00,
2013-07-07 03:39:00,76.4,65.1,29.71,SSE,155,0.0,1.0,68,0.00,,,0.00,Wunderground v.1.13,2013-07-07 08:39:00,
2013-07-07 03:43:00,76.3,65.0,29.71,SSE,155,0.0,0.0,68,0.00,,,0.00,Wunderground v.1.13,2013-07-07 08:43:00,
2013-07-07 03:46:00,76.3,65.0,29.71,SSE,155,0.0,0.0,68,0.00,,,0.00,Wunderground v.1.13,2013-07-07 08:46:00,
2013-07-07 03:47:00,76.3,65.0,29.71,SSE,155,0.0,0.0,68,0.00,,,0.00,Wunderground v.1.13,2013-07-07 08:47:00,
2013-07-07 03:49:00,76.2,64.9,29.71,SSE,155,0.0,0.0,68,0.00,,,0.00,Wunderground v.1.13,2013-07-07 08:49:00,
2013-07-07 03:50:00,76.2,64.9,29.71,SSE,155,0.0,0.0,68,0.00,,,0.00,Wunderground v.1.13,2013-07-07 08:50:00,
2013-07-07 03:53:00,76.2,64.9,29.71,SSE,155,0.0,0.0,68,0.00,,,0.00,Wunderground v.1.13,2013-07-07 08:53:00,
2013-07-07 03:56:00,76.1,65.2,29.71,SSE,155,0.0,0.0,69,0.00,,,0.00,Wunderground v.1.13,2013-07-07 08:56:00,
2013-07-07 03:58:00,76.1,65.2,29.71,SSE,155,0.0,0.0,69,0.00,,,0.00,Wunderground v.1.13,2013-07-07 08:58:00,
2013-07-07 03:59:00,76.1,65.2,29.71,SSE,155,0.0,0.0,69,0.00,,,0.00,Wunderground v.1.13,2013-07-07 08:59:00,
2013-07-07 04:00:00,76.0,65.1,29.71,SSE,155,0.0,0.0,69,0.00,,,0.00,Wunderground v.1.13,2013-07-07 09:00:00,
2013-07-07 04:01:00,76.0,65.1,29.71,SSE,155,0.0,0.0,69,0.00,,,0.00,Wunderground v.1.13,2013-07-07 09:01:00,
2013-07-07 04:05:00,76.0,65.1,29.71,SSE,155,0.0,0.0,69,0.00,,,0.00,Wunderground v.1.13,2013-07-07 09:05:00,
2013-07-07 04:06:00,76.0,65.1,29.71,SSE,155,0.0,0.0,69,0.00,,,0.00,Wunderground v.1.13,2013-07-07 09:06:00,
2013-07-07 04:08:00,75.9,65.0,29.71,SSE,155,0.0,0.0,69,0.00,,,0.00,Wunderground v.1.13,2013-07-07 09:08:00,
2013-07-07 04:11:00,75.9,65.4,29.71,SSE,155,0.0,0.0,70,0.00,,,0.00,Wunderground v.1.13,2013-07-07 09:11:00,
2013-07-07 04:12:00,75.9,65.4,29.71,SSE,155,0.0,0.0,70,0.00,,,0.00,Wunderground v.1.13,2013-07-07 09:12:00,
2013-07-07 04:14:00,75.9,65.4,29.71,SSE,155,0.0,0.0,70,0.00,,,0.00,Wunderground v.1.13,2013-07-07 09:14:00,
2013-07-07 04:16:00,75.8,65.3,29.71,SSE,155,0.0,0.0,70,0.00,,,0.00,Wunderground v.1.13,2013-07-07 09:16:00,
2013-07-07 04:17:00,75.8,65.3,29.71,SSE,155,0.0,0.0,70,0.00,,,0.00,Wunderground v.1.13,2013-07-07 09:17:00,
2013-07-07 04:18:00,75.8,65.3,29.71,SSE,155,0.0,0.0,70,0.00,,,0.00,Wunderground v.1.13,2013-07-07 09:18:00,
2013-07-07 04:22:00,75.8,65.3,29.71,SSE,155,0.0,0.0,70,0.00,,,0.00,Wunderground v.1.13,2013-07-07 09:22:00,
2013-07-07 04:23:00,75.8,65.3,29.71,SSE,155,0.0,0.0,70,0.00,,,0.00,Wunderground v.1.13,2013-07-07 09:23:00,
2013-07-07 04:26:00,75.8,65.3,29.71,SSE,155,0.0,0.0,70,0.00,,,0.00,Wunderground v.1.13,2013-07-07 09:26:00,
2013-07-07 04:27:00,75.7,65.2,29.71,SSE,155,0.0,0.0,70,0.00,,,0.00,Wunderground v.1.13,2013-07-07 09:27:00,
2013-07-07 04:28:00,75.7,65.2,29.71,SSE,155,0.0,0.0,70,0.00,,,0.00,Wunderground v.1.13,2013-07-07 09:28:00,
2013-07-07 04:31:00,75.7,65.2,29.71,SSE,155,0.0,0.0,70,0.00,,,0.00,Wunderground v.1.13,2013-07-07 09:31:00,
2013-07-07 04:32:00,75.7,65.2,29.71,SSE,155,0.0,0.0,70,0.00,,,0.00,Wunderground v.1.13,2013-07-07 09:32:00,
2013-07-07 04:33:00,75.7,65.2,29.71,SSE,155,0.0,0.0,70,0.00,,,0.00,Wunderground v.1.13,2013-07-07 09:33:00,
2013-07-07 04:39:00,75.5,65.0,29.71,SSE,155,0.0,1.0,70,0.00,,,0.00,Wunderground v.1.13,2013-07-07 09:39:00,
2013-07-07 04:41:00,75.5,65.0,29.71,SSE,155,0.0,0.0,70,0.00,,,0.00,Wunderground v.1.13,2013-07-07 09:41:00,
2013-07-07 04:42:00,75.5,65.0,29.71,SSE,155,0.0,0.0,70,0.00,,,0.00,Wunderground v.1.13,2013-07-07 09:42:00,
2013-07-07 04:46:00,75.4,65.3,29.72,SSE,155,0.0,0.0,71,0.00,,,0.00,Wunderground v.1.13,2013-07-07 09:46:00,
2013-07-07 04:47:00,75.3,65.2,29.71,SSE,155,0.0,0.0,71,0.00,,,0.00,Wunderground v.1.13,2013-07-07 09:47:00,
2013-07-07 04:50:00,75.2,65.1,29.72,SSE,155,0.0,0.0,71,0.00,,,0.00,Wunderground v.1.13,2013-07-07 09:50:00,
2013-07-07 04:52:00,75.2,65.1,29.72,SSE,155,0.0,0.0,71,0.00,,,0.00,Wunderground v.1.13,2013-07-07 09:52:00,
2013-07-07 04:53:00,75.1,65.1,29.72,SSE,155,0.0,0.0,71,0.00,,,0.00,Wunderground v.1.13,2013-07-07 09:53:00,
2013-07-07 04:54:00,75.1,65.5,29.72,SSE,155,0.0,0.0,72,0.00,,,0.00,Wunderground v.1.13,2013-07-07 09:54:00,
2013-07-07 04:55:00,75.0,65.4,29.71,SSE,155,0.0,0.0,72,0.00,,,0.00,Wunderground v.1.13,2013-07-07 09:55:00,
2013-07-07 05:00:00,74.9,65.3,29.72,SSE,155,0.0,1.0,72,0.00,,,0.00,Wunderground v.1.13,2013-07-07 10:00:00,
2013-07-07 05:01:00,74.9,65.3,29.72,SSE,155,0.0,1.0,72,0.00,,,0.00,Wunderground v.1.13,2013-07-07 10:01:00,
2013-07-07 05:02:00,74.8,65.2,29.72,SSE,155,0.0,1.0,72,0.00,,,0.00,Wunderground v.1.13,2013-07-07 10:02:00,
2013-07-07 05:03:00,74.8,65.2,29.72,SSE,155,0.0,1.0,72,0.00,,,0.00,Wunderground v.1.13,2013-07-07 10:03:00,
2013-07-07 05:06:00,74.8,65.2,29.72,SSE,155,0.0,0.0,72,0.00,,,0.00,Wunderground v.1.13,2013-07-07 10:06:00,
2013-07-07 05:09:00,74.7,65.1,29.72,SSE,155,0.0,0.0,72,0.00,,,0.00,Wunderground v.1.13,2013-07-07 10:09:00,
2013-07-07 05:12:00,74.7,65.5,29.72,SSE,155,1.0,1.0,73,0.00,,,0.00,Wunderground v.1.13,2013-07-07 10:12:00,
2013-07-07 05:13:00,74.7,65.5,29.72,SSE,155,0.0,1.0,73,0.00,,,0.00,Wunderground v.1.13,2013-07-07 10:13:00,
2013-07-07 05:14:00,74.6,65.4,29.72,SSE,155,0.0,1.0,73,0.00,,,0.00,Wunderground v.1.13,2013-07-07 10:14:00,
2013-07-07 05:17:00,74.6,65.4,29.72,SSE,155,0.0,0.0,73,0.00,,,0.00,Wunderground v.1.13,2013-07-07 10:17:00,
2013-07-07 05:18:00,74.5,65.3,29.72,SSE,155,0.0,0.0,73,0.00,,,0.00,Wunderground v.1.13,2013-07-07 10:18:00,
2013-07-07 05:19:00,74.5,65.3,29.72,SSE,155,0.0,0.0,73,0.00,,,0.00,Wunderground v.1.13,2013-07-07 10:19:00,
2013-07-07 05:22:00,74.5,65.3,29.72,SSE,155,0.0,0.0,73,0.00,,,0.00,Wunderground v.1.13,2013-07-07 10:22:00,
2013-07-07 05:23:00,74.4,65.2,29.72,SSE,155,0.0,0.0,73,0.00,,,0.00,Wunderground v.1.13,2013-07-07 10:23:00,
2013-07-07 05:25:00,74.4,65.2,29.72,SSE,155,0.0,0.0,73,0.00,,,0.00,Wunderground v.1.13,2013-07-07 10:25:00,
2013-07-07 05:29:00,74.3,65.5,29.72,SSE,155,0.0,2.0,74,0.00,,,0.00,Wunderground v.1.13,2013-07-07 10:29:00,
2013-07-07 05:30:00,74.2,65.4,29.72,SSE,155,0.0,0.0,74,0.00,,,0.00,Wunderground v.1.13,2013-07-07 10:30:00,
2013-07-07 05:31:00,74.2,65.4,29.72,SSE,155,0.0,0.0,74,0.00,,,0.00,Wunderground v.1.13,2013-07-07 10:31:00,
2013-07-07 05:32:00,74.2,65.4,29.72,SSE,155,0.0,0.0,74,0.00,,,0.00,Wunderground v.1.13,2013-07-07 10:32:00,
2013-07-07 05:34:00,74.2,65.4,29.72,SSE,155,0.0,2.0,74,0.00,,,0.00,Wunderground v.1.13,2013-07-07 10:34:00,
2013-07-07 05:38:00,74.1,65.3,29.72,SSE,155,0.0,0.0,74,0.00,,,0.00,Wunderground v.1.13,2013-07-07 10:38:00,
2013-07-07 05:40:00,74.0,65.2,29.72,SSE,155,0.0,0.0,74,0.00,,,0.00,Wunderground v.1.13,2013-07-07 10:40:00,
2013-07-07 05:41:00,74.0,65.2,29.72,SSE,155,0.0,0.0,74,0.00,,,0.00,Wunderground v.1.13,2013-07-07 10:41:00,
2013-07-07 05:43:00,74.0,65.2,29.72,SSE,155,0.0,0.0,74,0.00,,,0.00,Wunderground v.1.13,2013-07-07 10:43:00,
2013-07-07 05:44:00,73.9,65.5,29.72,SSE,155,0.0,0.0,75,0.00,,,0.00,Wunderground v.1.13,2013-07-07 10:44:00,
2013-07-07 05:48:00,73.9,65.5,29.72,SSE,155,0.0,0.0,75,0.00,,,0.00,Wunderground v.1.13,2013-07-07 10:48:00,
2013-07-07 05:49:00,73.9,65.5,29.72,SSE,155,0.0,0.0,75,0.00,,,0.00,Wunderground v.1.13,2013-07-07 10:49:00,
2013-07-07 05:50:00,73.9,65.5,29.72,SSE,155,0.0,0.0,75,0.00,,,0.00,Wunderground v.1.13,2013-07-07 10:50:00,
2013-07-07 05:51:00,73.9,65.5,29.72,SSE,155,0.0,0.0,75,0.00,,,0.00,Wunderground v.1.13,2013-07-07 10:51:00,
2013-07-07 05:55:00,73.8,65.4,29.72,SSE,155,0.0,0.0,75,0.00,,,0.00,Wunderground v.1.13,2013-07-07 10:55:00,
2013-07-07 05:56:00,73.8,65.4,29.71,SSE,155,0.0,0.0,75,0.00,,,0.00,Wunderground v.1.13,2013-07-07 10:56:00,
2013-07-07 05:58:00,73.9,65.5,29.72,SSE,155,0.0,0.0,75,0.00,,,0.00,Wunderground v.1.13,2013-07-07 10:58:00,
2013-07-07 05:59:00,73.9,65.5,29.72,SSE,155,0.0,0.0,75,0.00,,,0.00,Wunderground v.1.13,2013-07-07 10:59:00,
2013-07-07 06:04:00,73.9,65.5,29.72,SSE,155,0.0,0.0,75,0.00,,,0.00,Wunderground v.1.13,2013-07-07 11:04:00,
2013-07-07 06:05:00,73.8,65.4,29.72,SSE,155,0.0,0.0,75,0.00,,,0.00,Wunderground v.1.13,2013-07-07 11:05:00,
2013-07-07 06:08:00,73.9,65.9,29.72,SSE,155,0.0,0.0,76,0.00,,,0.00,Wunderground v.1.13,2013-07-07 11:08:00,
2013-07-07 06:10:00,73.9,65.9,29.72,SSE,155,0.0,0.0,76,0.00,,,0.00,Wunderground v.1.13,2013-07-07 11:10:00,
2013-07-07 06:11:00,73.9,65.9,29.72,SSE,155,0.0,0.0,76,0.00,,,0.00,Wunderground v.1.13,2013-07-07 11:11:00,
2013-07-07 06:12:00,73.9,65.9,29.72,SSE,155,0.0,0.0,76,0.00,,,0.00,Wunderground v.1.13,2013-07-07 11:12:00,
2013-07-07 06:16:00,73.9,65.9,29.72,SSE,155,0.0,0.0,76,0.00,,,0.00,Wunderground v.1.13,2013-07-07 11:16:00,
2013-07-07 06:17:00,73.9,65.9,29.72,SSE,155,0.0,0.0,76,0.00,,,0.00,Wunderground v.1.13,2013-07-07 11:17:00,
2013-07-07 06:18:00,73.9,65.9,29.72,SSE,155,0.0,0.0,76,0.00,,,0.00,Wunderground v.1.13,2013-07-07 11:18:00,
2013-07-07 06:19:00,73.9,65.9,29.72,SSE,155,0.0,0.0,76,0.00,,,0.00,Wunderground v.1.13,2013-07-07 11:19:00,
2013-07-07 06:20:00,73.9,65.9,29.72,SSE,155,0.0,0.0,76,0.00,,,0.00,Wunderground v.1.13,2013-07-07 11:20:00,
2013-07-07 06:24:00,73.9,65.9,29.72,SSE,155,0.0,0.0,76,0.00,,,0.00,Wunderground v.1.13,2013-07-07 11:24:00,
2013-07-07 06:25:00,74.0,66.0,29.72,SSE,155,0.0,0.0,76,0.00,,,0.00,Wunderground v.1.13,2013-07-07 11:25:00,
2013-07-07 06:27:00,74.0,66.0,29.72,SSE,155,0.0,0.0,76,0.00,,,0.00,Wunderground v.1.13,2013-07-07 11:27:00,
2013-07-07 06:28:00,74.0,66.0,29.72,SSE,155,0.0,0.0,76,0.00,,,0.00,Wunderground v.1.13,2013-07-07 11:28:00,
2013-07-07 06:30:00,74.1,66.0,29.72,SSE,155,0.0,0.0,76,0.00,,,0.00,Wunderground v.1.13,2013-07-07 11:30:00,
2013-07-07 06:34:00,74.1,66.0,29.72,SSE,155,0.0,0.0,76,0.00,,,0.00,Wunderground v.1.13,2013-07-07 11:34:00,
2013-07-07 06:35:00,74.1,66.0,29.72,SSE,155,0.0,0.0,76,0.00,,,0.00,Wunderground v.1.13,2013-07-07 11:35:00,
2013-07-07 06:36:00,74.1,66.0,29.72,SSE,155,0.0,0.0,76,0.00,,,0.00,Wunderground v.1.13,2013-07-07 11:36:00,
2013-07-07 06:37:00,74.1,66.0,29.72,SSE,155,0.0,0.0,76,0.00,,,0.00,Wunderground v.1.13,2013-07-07 11:37:00,
2013-07-07 06:40:00,74.2,66.1,29.72,SSE,155,0.0,0.0,76,0.00,,,0.00,Wunderground v.1.13,2013-07-07 11:40:00,
2013-07-07 06:41:00,74.2,66.1,29.72,SSE,155,0.0,0.0,76,0.00,,,0.00,Wunderground v.1.13,2013-07-07 11:41:00,
2013-07-07 06:45:00,74.4,66.3,29.72,SSE,155,0.0,0.0,76,0.00,,,0.00,Wunderground v.1.13,2013-07-07 11:45:00,
2013-07-07 06:46:00,74.4,66.3,29.72,SSE,155,0.0,0.0,76,0.00,,,0.00,Wunderground v.1.13,2013-07-07 11:46:00,
2013-07-07 06:47:00,74.4,66.3,29.72,SSE,155,0.0,0.0,76,0.00,,,0.00,Wunderground v.1.13,2013-07-07 11:47:00,
2013-07-07 06:50:00,74.5,66.4,29.72,SSE,155,0.0,0.0,76,0.00,,,0.00,Wunderground v.1.13,2013-07-07 11:50:00,
2013-07-07 06:51:00,74.5,66.4,29.72,SSE,155,0.0,0.0,76,0.00,,,0.00,Wunderground v.1.13,2013-07-07 11:51:00,
2013-07-07 06:52:00,74.6,66.5,29.72,SSE,155,0.0,0.0,76,0.00,,,0.00,Wunderground v.1.13,2013-07-07 11:52:00,
2013-07-07 06:54:00,74.6,66.5,29.72,SSE,155,0.0,0.0,76,0.00,,,0.00,Wunderground v.1.13,2013-07-07 11:54:00,
2013-07-07 06:58:00,74.7,67.0,29.72,SSE,155,0.0,0.0,77,0.00,,,0.00,Wunderground v.1.13,2013-07-07 11:58:00,
2013-07-07 07:00:00,74.8,66.7,29.72,SSE,155,0.0,0.0,76,0.00,,,0.00,Wunderground v.1.13,2013-07-07 12:00:00,
2013-07-07 07:04:00,75.0,66.9,29.72,SSE,155,0.0,0.0,76,0.00,,,0.00,Wunderground v.1.13,2013-07-07 12:04:00,
2013-07-07 07:05:00,75.0,66.9,29.72,SSE,155,0.0,0.0,76,0.00,,,0.00,Wunderground v.1.13,2013-07-07 12:05:00,
2013-07-07 07:10:00,75.2,67.1,29.72,SSE,155,0.0,0.0,76,0.00,,,0.00,Wunderground v.1.13,2013-07-07 12:10:00,
2013-07-07 07:11:00,75.3,67.2,29.72,SSE,155,0.0,0.0,76,0.00,,,0.00,Wunderground v.1.13,2013-07-07 12:11:00,
2013-07-07 07:15:00,75.5,67.4,29.72,SSE,155,0.0,0.0,76,0.00,,,0.00,Wunderground v.1.13,2013-07-07 12:15:00,
2013-07-07 07:16:00,75.6,67.5,29.72,SSE,155,0.0,0.0,76,0.00,,,0.00,Wunderground v.1.13,2013-07-07 12:16:00,
2013-07-07 07:20:00,75.8,67.7,29.72,SSE,155,0.0,0.0,76,0.00,,,0.00,Wunderground v.1.13,2013-07-07 12:20:00,
2013-07-07 07:21:00,75.9,67.8,29.72,SSE,155,0.0,0.0,76,0.00,,,0.00,Wunderground v.1.13,2013-07-07 12:21:00,
2013-07-07 07:22:00,76.0,67.9,29.72,SSE,155,0.0,0.0,76,0.00,,,0.00,Wunderground v.1.13,2013-07-07 12:22:00,
2013-07-07 07:23:00,76.1,68.0,29.72,SSE,155,0.0,0.0,76,0.00,,,0.00,Wunderground v.1.13,2013-07-07 12:23:00,
2013-07-07 07:28:00,76.5,67.6,29.72,SSE,155,0.0,1.0,74,0.00,,,0.00,Wunderground v.1.13,2013-07-07 12:28:00,
2013-07-07 07:30:00,76.6,68.1,29.72,SSE,155,0.0,0.0,75,0.00,,,0.00,Wunderground v.1.13,2013-07-07 12:30:00,
2013-07-07 07:32:00,76.7,67.8,29.72,SSE,155,0.0,0.0,74,0.00,,,0.00,Wunderground v.1.13,2013-07-07 12:32:00,
2013-07-07 07:33:00,76.8,68.3,29.72,SSE,155,0.0,0.0,75,0.00,,,0.00,Wunderground v.1.13,2013-07-07 12:33:00,
2013-07-07 07:35:00,77.0,68.1,29.72,SSE,155,0.0,1.0,74,0.00,,,0.00,Wunderground v.1.13,2013-07-07 12:35:00,
2013-07-07 07:37:00,77.1,68.2,29.72,SSE,155,0.0,1.0,74,0.00,,,0.00,Wunderground v.1.13,2013-07-07 12:37:00,
2013-07-07 07:38:00,77.1,67.8,29.72,SSE,155,0.0,1.0,73,0.00,,,0.00,Wunderground v.1.13,2013-07-07 12:38:00,
2013-07-07 07:40:00,77.2,67.9,29.73,SSE,155,0.0,0.0,73,0.00,,,0.00,Wunderground v.1.13,2013-07-07 12:40:00,
2013-07-07 07:41:00,77.3,68.0,29.73,SSE,155,0.0,2.0,73,0.00,,,0.00,Wunderground v.1.13,2013-07-07 12:41:00,
2013-07-07 07:44:00,77.4,68.1,29.73,SSE,155,0.0,2.0,73,0.00,,,0.00,Wunderground v.1.13,2013-07-07 12:44:00,
2013-07-07 07:45:00,77.5,68.2,29.73,SSE,155,0.0,0.0,73,0.00,,,0.00,Wunderground v.1.13,2013-07-07 12:45:00,
2013-07-07 07:46:00,77.6,68.3,29.73,SSE,155,0.0,0.0,73,0.00,,,0.00,Wunderground v.1.13,2013-07-07 12:46:00,
2013-07-07 07:47:00,77.7,68.0,29.73,SSE,155,0.0,1.0,72,0.00,,,0.00,Wunderground v.1.13,2013-07-07 12:47:00,
2013-07-07 07:52:00,77.9,68.1,29.73,SSE,155,0.0,2.0,72,0.00,,,0.00,Wunderground v.1.13,2013-07-07 12:52:00,
2013-07-07 07:53:00,78.0,68.2,29.73,SSE,155,1.0,2.0,72,0.00,,,0.00,Wunderground v.1.13,2013-07-07 12:53:00,
2013-07-07 07:54:00,78.1,68.3,29.72,SSE,155,0.0,2.0,72,0.00,,,0.00,Wunderground v.1.13,2013-07-07 12:54:00,
2013-07-07 07:55:00,78.1,68.3,29.73,SSE,155,0.0,1.0,72,0.00,,,0.00,Wunderground v.1.13,2013-07-07 12:55:00,
2013-07-07 07:58:00,78.4,68.2,29.73,SSE,155,0.0,1.0,71,0.00,,,0.00,Wunderground v.1.13,2013-07-07 12:58:00,
2013-07-07 08:00:00,78.6,68.4,29.73,SSE,155,0.0,0.0,71,0.00,,,0.00,Wunderground v.1.13,2013-07-07 13:00:00,
2013-07-07 08:01:00,78.7,68.5,29.73,SSE,155,0.0,0.0,71,0.00,,,0.00,Wunderground v.1.13,2013-07-07 13:01:00,
2013-07-07 08:03:00,78.9,68.3,29.73,SSE,155,0.0,2.0,70,0.00,,,0.00,Wunderground v.1.13,2013-07-07 13:03:00,
2013-07-07 08:04:00,79.0,68.4,29.73,West,277,0.0,2.0,70,0.00,,,0.00,Wunderground v.1.13,2013-07-07 13:04:00,
2013-07-07 08:08:00,79.1,68.5,29.73,West,276,1.0,2.0,70,0.00,,,0.00,Wunderground v.1.13,2013-07-07 13:08:00,
2013-07-07 08:09:00,79.1,68.5,29.73,West,275,1.0,2.0,70,0.00,,,0.00,Wunderground v.1.13,2013-07-07 13:09:00,
2013-07-07 08:10:00,79.1,68.5,29.73,West,275,1.0,1.0,70,0.00,,,0.00,Wunderground v.1.13,2013-07-07 13:10:00,
2013-07-07 08:14:00,79.3,68.2,29.73,SE,146,1.0,2.0,69,0.00,,,0.00,Wunderground v.1.13,2013-07-07 13:14:00,
2013-07-07 08:15:00,79.3,68.2,29.73,SE,146,1.0,1.0,69,0.00,,,0.00,Wunderground v.1.13,2013-07-07 13:15:00,
2013-07-07 08:18:00,79.3,68.2,29.73,SE,146,1.0,3.0,69,0.00,,,0.00,Wunderground v.1.13,2013-07-07 13:18:00,
2013-07-07 08:19:00,79.3,68.2,29.73,SSW,210,1.0,5.0,69,0.00,,,0.00,Wunderground v.1.13,2013-07-07 13:19:00,
2013-07-07 08:20:00,79.3,68.2,29.73,SSW,211,1.0,1.0,69,0.00,,,0.00,Wunderground v.1.13,2013-07-07 13:20:00,
2013-07-07 08:21:00,79.4,68.3,29.73,SSW,192,1.0,3.0,69,0.00,,,0.00,Wunderground v.1.13,2013-07-07 13:21:00,
2013-07-07 08:25:00,79.6,68.5,29.73,SSW,198,1.0,1.0,69,0.00,,,0.00,Wunderground v.1.13,2013-07-07 13:25:00,
2013-07-07 08:26:00,79.7,68.6,29.73,SSW,198,1.0,1.0,69,0.00,,,0.00,Wunderground v.1.13,2013-07-07 13:26:00,
2013-07-07 08:27:00,79.8,68.7,29.73,SSW,198,1.0,1.0,69,0.00,,,0.00,Wunderground v.1.13,2013-07-07 13:27:00,
2013-07-07 08:28:00,79.8,68.3,29.73,SSE,161,1.0,4.0,68,0.00,,,0.00,Wunderground v.1.13,2013-07-07 13:28:00,
2013-07-07 08:29:00,79.9,68.4,29.73,SE,144,1.0,4.0,68,0.00,,,0.00,Wunderground v.1.13,2013-07-07 13:29:00,
2013-07-07 08:32:00,80.1,68.6,29.73,SE,139,1.0,1.0,68,0.00,,,0.00,Wunderground v.1.13,2013-07-07 13:32:00,
2013-07-07 08:34:00,80.3,68.3,29.73,SW,218,1.0,1.0,67,0.00,,,0.00,Wunderground v.1.13,2013-07-07 13:34:00,
2013-07-07 08:35:00,80.4,68.4,29.73,SW,217,1.0,2.0,67,0.00,,,0.00,Wunderground v.1.13,2013-07-07 13:35:00,
2013-07-07 08:36:00,80.4,68.4,29.73,SW,217,1.0,2.0,67,0.00,,,0.00,Wunderground v.1.13,2013-07-07 13:36:00,
2013-07-07 08:37:00,80.4,68.4,29.73,SW,217,1.0,2.0,67,0.00,,,0.00,Wunderground v.1.13,2013-07-07 13:37:00,
2013-07-07 08:40:00,80.6,68.6,29.72,SW,217,1.0,1.0,67,0.00,,,0.00,Wunderground v.1.13,2013-07-07 13:40:00,
2013-07-07 08:42:00,80.7,68.7,29.73,SE,138,1.0,2.0,67,0.00,,,0.00,Wunderground v.1.13,2013-07-07 13:42:00,
2013-07-07 08:43:00,80.8,68.4,29.73,SSW,204,1.0,2.0,66,0.00,,,0.00,Wunderground v.1.13,2013-07-07 13:43:00,
2013-07-07 08:44:00,80.7,69.2,29.72,SSW,204,1.0,2.0,68,0.00,,,0.00,Wunderground v.1.13,2013-07-07 13:44:00,
2013-07-07 08:46:00,80.8,68.4,29.73,West,275,1.0,5.0,66,0.00,,,0.00,Wunderground v.1.13,2013-07-07 13:46:00,
2013-07-07 08:48:00,80.7,68.3,29.73,West,267,1.0,5.0,66,0.00,,,0.00,Wunderground v.1.13,2013-07-07 13:48:00,
2013-07-07 08:50:00,80.7,68.3,29.72,SSE,168,1.0,2.0,66,0.00,,,0.00,Wunderground v.1.13,2013-07-07 13:50:00,
2013-07-07 08:55:00,80.8,69.2,29.72,SW,235,1.0,1.0,68,0.00,,,0.00,Wunderground v.1.13,2013-07-07 13:55:00,
2013-07-07 08:56:00,80.9,68.9,29.73,SW,231,1.0,1.0,67,0.00,,,0.00,Wunderground v.1.13,2013-07-07 13:56:00,
2013-07-07 08:57:00,81.0,69.4,29.73,SW,230,1.0,2.0,68,0.00,,,0.00,Wunderground v.1.13,2013-07-07 13:57:00,
2013-07-07 09:00:00,81.0,68.6,29.73,SW,227,1.0,4.0,66,0.00,,,0.00,Wunderground v.1.13,2013-07-07 14:00:00,
2013-07-07 09:01:00,81.0,68.6,29.73,West,261,1.0,4.0,66,0.00,,,0.00,Wunderground v.1.13,2013-07-07 14:01:00,
2013-07-07 09:03:00,80.9,68.9,29.73,West,263,2.0,5.0,67,0.00,,,0.00,Wunderground v.1.13,2013-07-07 14:03:00,
2013-07-07 09:07:00,80.8,68.8,29.73,West,263,2.0,2.0,67,0.00,,,0.00,Wunderground v.1.13,2013-07-07 14:07:00,
2013-07-07 09:09:00,80.8,68.8,29.73,WSW,237,2.0,2.0,67,0.00,,,0.00,Wunderground v.1.13,2013-07-07 14:09:00,
2013-07-07 09:10:00,80.8,68.8,29.73,WSW,244,2.0,2.0,67,0.00,,,0.00,Wunderground v.1.13,2013-07-07 14:10:00,
2013-07-07 09:11:00,80.9,68.9,29.73,WSW,244,2.0,2.0,67,0.00,,,0.00,Wunderground v.1.13,2013-07-07 14:11:00,
2013-07-07 09:14:00,81.1,68.7,29.73,SSW,198,1.0,2.0,66,0.00,,,0.00,Wunderground v.1.13,2013-07-07 14:14:00,
2013-07-07 09:17:00,81.3,69.3,29.73,SSW,198,1.0,1.0,67,0.00,,,0.00,Wunderground v.1.13,2013-07-07 14:17:00,
2013-07-07 09:18:00,81.4,69.8,29.73,SSW,195,0.0,1.0,68,0.00,,,0.00,Wunderground v.1.13,2013-07-07 14:18:00,
2013-07-07 09:20:00,81.6,69.6,29.72,SSW,194,0.0,0.0,67,0.00,,,0.00,Wunderground v.1.13,2013-07-07 14:20:00,
2013-07-07 09:22:00,81.8,69.8,29.72,SSW,194,0.0,0.0,67,0.00,,,0.00,Wunderground v.1.13,2013-07-07 14:22:00,
2013-07-07 09:23:00,81.9,69.9,29.72,WSW,250,1.0,3.0,67,0.00,,,0.00,Wunderground v.1.13,2013-07-07 14:23:00,
2013-07-07 09:24:00,81.9,69.0,29.72,WSW,250,1.0,3.0,65,0.00,,,0.00,Wunderground v.1.13,2013-07-07 14:24:00,
2013-07-07 09:26:00,81.9,69.4,29.72,WSW,250,1.0,1.0,66,0.00,,,0.00,Wunderground v.1.13,2013-07-07 14:26:00,
2013-07-07 09:28:00,82.0,69.5,29.72,WSW,248,1.0,1.0,66,0.00,,,0.00,Wunderground v.1.13,2013-07-07 14:28:00,
2013-07-07 09:29:00,82.1,69.6,29.72,WSW,248,1.0,2.0,66,0.00,,,0.00,Wunderground v.1.13,2013-07-07 14:29:00,
2013-07-07 09:34:00,82.6,70.1,29.72,West,265,0.0,1.0,66,0.00,,,0.00,Wunderground v.1.13,2013-07-07 14:34:00,
2013-07-07 09:35:00,82.6,69.6,29.72,WSW,252,0.0,1.0,65,0.00,,,0.00,Wunderground v.1.13,2013-07-07 14:35:00,
2013-07-07 09:37:00,82.7,69.3,29.73,SSW,196,1.0,1.0,64,0.00,,,0.00,Wunderground v.1.13,2013-07-07 14:37:00,
2013-07-07 09:38:00,82.8,69.8,29.73,SSW,196,1.0,1.0,65,0.00,,,0.00,Wunderground v.1.13,2013-07-07 14:38:00,
2013-07-07 09:42:00,83.0,69.6,29.73,South,176,1.0,2.0,64,0.00,,,0.00,Wunderground v.1.13,2013-07-07 14:42:00,
2013-07-07 09:44:00,83.3,70.3,29.73,South,177,1.0,2.0,65,0.00,,,0.00,Wunderground v.1.13,2013-07-07 14:44:00,
2013-07-07 09:46:00,83.3,69.4,29.73,ESE,117,1.0,5.0,63,0.00,,,0.00,Wunderground v.1.13,2013-07-07 14:46:00,
2013-07-07 09:48:00,82.9,69.5,29.73,SE,130,2.0,5.0,64,0.00,,,0.00,Wunderground v.1.13,2013-07-07 14:48:00,
2013-07-07 09:49:00,82.8,69.4,29.73,SE,130,2.0,5.0,64,0.00,,,0.00,Wunderground v.1.13,2013-07-07 14:49:00,
2013-07-07 09:51:00,82.5,69.5,29.73,SSW,201,2.0,4.0,65,0.00,,,0.00,Wunderground v.1.13,2013-07-07 14:51:00,
2013-07-07 09:53:00,82.4,69.9,29.73,SSW,201,2.0,4.0,66,0.00,,,0.00,Wunderground v.1.13,2013-07-07 14:53:00,
2013-07-07 09:56:00,82.5,70.0,29.73,SSW,201,1.0,2.0,66,0.00,,,0.00,Wunderground v.1.13,2013-07-07 14:56:00,
2013-07-07 09:57:00,82.5,69.5,29.73,SSW,201,1.0,2.0,65,0.00,,,0.00,Wunderground v.1.13,2013-07-07 14:57:00,
2013-07-07 09:58:00,82.6,70.1,29.73,SSW,201,1.0,2.0,66,0.00,,,0.00,Wunderground v.1.13,2013-07-07 14:58:00,
2013-07-07 09:59:00,82.6,70.1,29.73,SSW,200,1.0,2.0,66,0.00,,,0.00,Wunderground v.1.13,2013-07-07 14:59:00,
2013-07-07 10:03:00,82.9,70.8,29.73,SSW,201,1.0,4.0,67,0.00,,,0.00,Wunderground v.1.13,2013-07-07 15:03:00,
2013-07-07 10:05:00,82.9,69.9,29.73,SE,130,1.0,6.0,65,0.00,,,0.00,Wunderground v.1.13,2013-07-07 15:05:00,
2013-07-07 10:07:00,82.7,70.2,29.73,SSW,213,2.0,6.0,66,0.00,,,0.00,Wunderground v.1.13,2013-07-07 15:07:00,
2013-07-07 10:09:00,82.7,69.7,29.73,SSW,194,2.0,6.0,65,0.00,,,0.00,Wunderground v.1.13,2013-07-07 15:09:00,
2013-07-07 10:12:00,82.7,69.7,29.73,SE,138,3.0,4.0,65,0.00,,,0.00,Wunderground v.1.13,2013-07-07 15:12:00,
2013-07-07 10:14:00,82.4,69.9,29.73,SE,137,3.0,4.0,66,0.00,,,0.00,Wunderground v.1.13,2013-07-07 15:14:00,
2013-07-07 10:15:00,82.3,70.2,29.73,SE,137,2.0,2.0,67,0.00,,,0.00,Wunderground v.1.13,2013-07-07 15:15:00,
2013-07-07 10:18:00,82.2,69.7,29.73,SE,136,2.0,5.0,66,0.00,,,0.00,Wunderground v.1.13,2013-07-07 15:18:00,
2013-07-07 10:20:00,82.1,69.6,29.73,SE,131,3.0,3.0,66,0.00,,,0.00,Wunderground v.1.13,2013-07-07 15:20:00,
2013-07-07 10:22:00,82.1,69.6,29.73,SE,131,3.0,4.0,66,0.00,,,0.00,Wunderground v.1.13,2013-07-07 15:22:00,
2013-07-07 10:25:00,82.2,70.1,29.73,South,186,3.0,3.0,67,0.00,,,0.00,Wunderground v.1.13,2013-07-07 15:25:00,
2013-07-07 10:26:00,82.4,70.3,29.73,WSW,255,3.0,4.0,67,0.00,,,0.00,Wunderground v.1.13,2013-07-07 15:26:00,
2013-07-07 10:27:00,82.4,69.4,29.73,West,265,3.0,5.0,65,0.00,,,0.00,Wunderground v.1.13,2013-07-07 15:27:00,
2013-07-07 10:30:00,82.3,69.4,29.73,West,278,3.0,4.0,65,0.00,,,0.00,Wunderground v.1.13,2013-07-07 15:30:00,
2013-07-07 10:32:00,82.3,69.8,29.73,West,279,3.0,4.0,66,0.00,,,0.00,Wunderground v.1.13,2013-07-07 15:32:00,
2013-07-07 10:33:00,82.3,69.8,29.73,West,278,3.0,4.0,66,0.00,,,0.00,Wunderground v.1.13,2013-07-07 15:33:00,
2013-07-07 10:36:00,82.1,69.2,29.73,West,278,4.0,4.0,65,0.00,,,0.00,Wunderground v.1.13,2013-07-07 15:36:00,
2013-07-07 10:37:00,82.0,68.6,29.73,West,278,3.0,4.0,64,0.00,,,0.00,Wunderground v.1.13,2013-07-07 15:37:00,
2013-07-07 10:40:00,81.9,69.4,29.73,West,277,2.0,2.0,66,0.00,,,0.00,Wunderground v.1.13,2013-07-07 15:40:00,
2013-07-07 10:41:00,82.0,69.5,29.73,West,277,2.0,2.0,66,0.00,,,0.00,Wunderground v.1.13,2013-07-07 15:41:00,
2013-07-07 10:44:00,82.4,70.3,29.73,West,277,1.0,2.0,67,0.00,,,0.00,Wunderground v.1.13,2013-07-07 15:44:00,
2013-07-07 10:45:00,82.7,70.2,29.73,West,276,1.0,4.0,66,0.00,,,0.00,Wunderground v.1.13,2013-07-07 15:45:00,
2013-07-07 10:48:00,83.4,70.4,29.73,SE,128,2.0,5.0,65,0.00,,,0.00,Wunderground v.1.13,2013-07-07 15:48:00,
2013-07-07 10:50:00,83.5,70.0,29.73,SE,128,2.0,2.0,64,0.00,,,0.00,Wunderground v.1.13,2013-07-07 15:50:00,
2013-07-07 10:51:00,83.5,70.5,29.73,SE,128,2.0,2.0,65,0.00,,,0.00,Wunderground v.1.13,2013-07-07 15:51:00,
2013-07-07 10:56:00,83.6,70.1,29.73,SE,128,3.0,3.0,64,0.00,,,0.00,Wunderground v.1.13,2013-07-07 15:56:00,
2013-07-07 10:58:00,83.4,70.4,29.73,SE,128,3.0,3.0,65,0.00,,,0.00,Wunderground v.1.13,2013-07-07 15:58:00,
2013-07-07 10:59:00,83.4,70.4,29.73,SE,128,2.0,4.0,65,0.00,,,0.00,Wunderground v.1.13,2013-07-07 15:59:00,
2013-07-07 11:02:00,83.7,70.7,29.73,SE,128,3.0,4.0,65,0.00,,,0.00,Wunderground v.1.13,2013-07-07 16:02:00,
2013-07-07 11:04:00,84.0,70.5,29.73,SE,128,3.0,4.0,64,0.00,,,0.00,Wunderground v.1.13,2013-07-07 16:04:00,
2013-07-07 11:05:00,84.1,70.6,29.73,SE,128,2.0,2.0,64,0.00,,,0.00,Wunderground v.1.13,2013-07-07 16:05:00,
2013-07-07 11:06:00,84.3,70.8,29.73,SE,128,2.0,2.0,64,0.00,,,0.00,Wunderground v.1.13,2013-07-07 16:06:00,
2013-07-07 11:08:00,84.7,70.2,29.73,SE,128,1.0,2.0,62,0.00,,,0.00,Wunderground v.1.13,2013-07-07 16:08:00,
2013-07-07 11:10:00,85.2,71.2,29.73,SE,128,1.0,4.0,63,0.00,,,0.00,Wunderground v.1.13,2013-07-07 16:10:00,
2013-07-07 11:12:00,85.4,70.4,29.73,SE,128,1.0,5.0,61,0.00,,,0.00,Wunderground v.1.13,2013-07-07 16:12:00,
2013-07-07 11:14:00,85.3,70.3,29.73,SE,128,1.0,5.0,61,0.00,,,0.00,Wunderground v.1.13,2013-07-07 16:14:00,
2013-07-07 11:17:00,85.1,70.6,29.73,SE,128,1.0,1.0,62,0.00,,,0.00,Wunderground v.1.13,2013-07-07 16:17:00,
2013-07-07 11:19:00,85.3,70.3,29.73,SE,128,1.0,1.0,61,0.00,,,0.00,Wunderground v.1.13,2013-07-07 16:19:00,
2013-07-07 11:20:00,85.3,70.3,29.73,SE,128,1.0,1.0,61,0.00,,,0.00,Wunderground v.1.13,2013-07-07 16:20:00,
2013-07-07 11:21:00,85.4,70.4,29.73,SE,128,1.0,1.0,61,0.00,,,0.00,Wunderground v.1.13,2013-07-07 16:21:00,
2013-07-07 11:22:00,85.4,70.4,29.73,SE,128,0.0,1.0,61,0.00,,,0.00,Wunderground v.1.13,2013-07-07 16:22:00,
2013-07-07 11:23:00,85.5,70.5,29.73,SE,128,0.0,1.0,61,0.00,,,0.00,Wunderground v.1.13,2013-07-07 16:23:00,
2013-07-07 11:25:00,85.6,70.6,29.73,SE,128,0.0,1.0,61,0.00,,,0.00,Wunderground v.1.13,2013-07-07 16:25:00,
2013-07-07 11:28:00,85.6,71.1,29.73,SE,128,0.0,1.0,62,0.00,,,0.00,Wunderground v.1.13,2013-07-07 16:28:00,
2013-07-07 11:30:00,85.8,70.3,29.73,SE,128,0.0,0.0,60,0.00,,,0.00,Wunderground v.1.13,2013-07-07 16:30:00,
2013-07-07 11:31:00,85.8,70.3,29.73,SE,128,0.0,0.0,60,0.00,,,0.00,Wunderground v.1.13,2013-07-07 16:31:00,
2013-07-07 11:32:00,85.9,70.4,29.73,SE,128,0.0,0.0,60,0.00,,,0.00,Wunderground v.1.13,2013-07-07 16:32:00,
2013-07-07 11:33:00,86.0,70.5,29.73,SE,128,0.0,0.0,60,0.00,,,0.00,Wunderground v.1.13,2013-07-07 16:33:00,
2013-07-07 11:35:00,86.3,70.3,29.73,SE,128,0.0,0.0,59,0.00,,,0.00,Wunderground v.1.13,2013-07-07 16:35:00,
2013-07-07 11:37:00,86.1,70.6,29.73,ESE,122,1.0,8.0,60,0.00,,,0.00,Wunderground v.1.13,2013-07-07 16:37:00,
2013-07-07 11:39:00,85.5,70.5,29.73,ESE,122,1.0,8.0,61,0.00,,,0.00,Wunderground v.1.13,2013-07-07 16:39:00,
2013-07-07 11:40:00,85.4,70.4,29.73,ESE,122,2.0,2.0,61,0.00,,,0.00,Wunderground v.1.13,2013-07-07 16:40:00,
2013-07-07 11:41:00,85.4,70.4,29.73,ESE,122,2.0,2.0,61,0.00,,,0.00,Wunderground v.1.13,2013-07-07 16:41:00,
2013-07-07 11:45:00,85.6,70.6,29.73,ESE,122,2.0,2.0,61,0.00,,,0.00,Wunderground v.1.13,2013-07-07 16:45:00,
2013-07-07 11:46:00,85.6,70.6,29.73,ESE,122,2.0,2.0,61,0.00,,,0.00,Wunderground v.1.13,2013-07-07 16:46:00,
2013-07-07 11:48:00,85.7,70.2,29.73,ESE,122,1.0,4.0,60,0.00,,,0.00,Wunderground v.1.13,2013-07-07 16:48:00,
2013-07-07 11:49:00,85.7,70.7,29.73,ESE,122,1.0,4.0,61,0.00,,,0.00,Wunderground v.1.13,2013-07-07 16:49:00,
2013-07-07 11:51:00,85.4,70.4,29.73,ESE,122,2.0,5.0,61,0.00,,,0.00,Wunderground v.1.13,2013-07-07 16:51:00,
2013-07-07 11:54:00,85.4,70.9,29.73,ESE,122,2.0,5.0,62,0.00,,,0.00,Wunderground v.1.13,2013-07-07 16:54:00,
2013-07-07 11:55:00,85.5,71.0,29.73,ESE,122,2.0,5.0,62,0.00,,,0.00,Wunderground v.1.13,2013-07-07 16:55:00,
2013-07-07 11:57:00,85.6,70.6,29.73,WSW,238,3.0,5.0,61,0.00,,,0.00,Wunderground v.1.13,2013-07-07 16:57:00,
2013-07-07 11:58:00,85.7,71.2,29.73,WSW,240,3.0,5.0,62,0.00,,,0.00,Wunderground v.1.13,2013-07-07 16:58:00,
2013-07-07 12:00:00,85.9,71.4,29.73,West,277,2.0,2.0,62,0.00,,,0.00,Wunderground v.1.13,2013-07-07 17:00:00,
2013-07-07 12:04:00,86.3,71.3,29.72,West,267,1.0,5.0,61,0.00,,,0.00,Wunderground v.1.13,2013-07-07 17:04:00,
2013-07-07 12:07:00,86.2,71.2,29.72,SE,133,1.0,7.0,61,0.00,,,0.00,Wunderground v.1.13,2013-07-07 17:07:00,
2013-07-07 12:09:00,86.3,71.3,29.72,SE,133,2.0,7.0,61,0.00,,,0.00,Wunderground v.1.13,2013-07-07 17:09:00,
2013-07-07 12:10:00,86.2,71.6,29.72,ESE,117,2.0,7.0,62,0.00,,,0.00,Wunderground v.1.13,2013-07-07 17:10:00,
2013-07-07 12:14:00,85.7,70.7,29.72,ESE,121,4.0,7.0,61,0.00,,,0.00,Wunderground v.1.13,2013-07-07 17:14:00,
2013-07-07 12:15:00,85.5,71.5,29.72,ESE,119,4.0,5.0,63,0.00,,,0.00,Wunderground v.1.13,2013-07-07 17:15:00,
2013-07-07 12:17:00,85.2,71.2,29.73,SSE,160,4.0,8.0,63,0.00,,,0.00,Wunderground v.1.13,2013-07-07 17:17:00,
2013-07-07 12:19:00,85.1,71.1,29.73,SW,217,4.0,8.0,63,0.00,,,0.00,Wunderground v.1.13,2013-07-07 17:19:00,
2013-07-07 12:20:00,85.2,71.2,29.73,SW,215,4.0,4.0,63,0.00,,,0.00,Wunderground v.1.13,2013-07-07 17:20:00,
2013-07-07 12:23:00,85.6,72.0,29.73,SE,132,4.0,6.0,64,0.00,,,0.00,Wunderground v.1.13,2013-07-07 17:23:00,
2013-07-07 12:24:00,85.8,71.7,29.73,ESE,121,3.0,6.0,63,0.00,,,0.00,Wunderground v.1.13,2013-07-07 17:24:00,
2013-07-07 12:27:00,85.9,72.3,29.73,ESE,119,4.0,5.0,64,0.00,,,0.00,Wunderground v.1.13,2013-07-07 17:27:00,
2013-07-07 12:28:00,86.0,71.5,29.73,ESE,118,4.0,7.0,62,0.00,,,0.00,Wunderground v.1.13,2013-07-07 17:28:00,
2013-07-07 12:29:00,86.0,71.0,29.73,ESE,117,4.0,7.0,61,0.00,,,0.00,Wunderground v.1.13,2013-07-07 17:29:00,
2013-07-07 12:34:00,85.9,71.4,29.72,ESE,121,4.0,6.0,62,0.00,,,0.00,Wunderground v.1.13,2013-07-07 17:34:00,
2013-07-07 12:35:00,85.8,71.3,29.73,ESE,117,4.0,7.0,62,0.00,,,0.00,Wunderground v.1.13,2013-07-07 17:35:00,
2013-07-07 12:36:00,85.6,71.1,29.73,ESE,115,4.0,7.0,62,0.00,,,0.00,Wunderground v.1.13,2013-07-07 17:36:00,
2013-07-07 12:40:00,85.5,71.0,29.73,ESE,115,4.0,4.0,62,0.00,,,0.00,Wunderground v.1.13,2013-07-07 17:40:00,
2013-07-07 12:41:00,85.5,71.0,29.73,ESE,109,4.0,8.0,62,0.00,,,0.00,Wunderground v.1.13,2013-07-07 17:41:00,
2013-07-07 12:42:00,85.4,70.9,29.73,ESE,108,4.0,8.0,62,0.00,,,0.00,Wunderground v.1.13,2013-07-07 17:42:00,
2013-07-07 12:43:00,85.5,71.5,29.73,SSE,150,4.0,8.0,63,0.00,,,0.00,Wunderground v.1.13,2013-07-07 17:43:00,
2013-07-07 12:48:00,86.0,71.0,29.73,SE,129,3.0,6.0,61,0.00,,,0.00,Wunderground v.1.13,2013-07-07 17:48:00,
2013-07-07 12:50:00,86.1,71.6,29.73,ESE,122,3.0,6.0,62,0.00,,,0.00,Wunderground v.1.13,2013-07-07 17:50:00,
2013-07-07 12:51:00,86.0,71.5,29.73,ESE,122,3.0,6.0,62,0.00,,,0.00,Wunderground v.1.13,2013-07-07 17:51:00,
2013-07-07 12:53:00,86.0,71.0,29.73,ESE,121,3.0,6.0,61,0.00,,,0.00,Wunderground v.1.13,2013-07-07 17:53:00,
2013-07-07 12:54:00,86.0,71.5,29.73,ESE,121,4.0,6.0,62,0.00,,,0.00,Wunderground v.1.13,2013-07-07 17:54:00,
2013-07-07 12:57:00,86.1,71.6,29.73,ESE,123,4.0,5.0,62,0.00,,,0.00,Wunderground v.1.13,2013-07-07 17:57:00,
2013-07-07 12:58:00,86.1,71.6,29.73,ESE,123,4.0,5.0,62,0.00,,,0.00,Wunderground v.1.13,2013-07-07 17:58:00,
2013-07-07 13:00:00,86.2,71.2,29.73,ESE,115,3.0,4.0,61,0.00,,,0.00,Wunderground v.1.13,2013-07-07 18:00:00,
2013-07-07 13:05:00,86.8,71.2,29.73,SSW,192,3.0,3.0,60,0.00,,,0.00,Wunderground v.1.13,2013-07-07 18:05:00,
2013-07-07 13:06:00,87.1,71.5,29.73,West,264,3.0,3.0,60,0.00,,,0.00,Wunderground v.1.13,2013-07-07 18:06:00,
2013-07-07 13:07:00,87.3,71.7,29.73,West,264,2.0,3.0,60,0.00,,,0.00,Wunderground v.1.13,2013-07-07 18:07:00,
2013-07-07 13:10:00,87.8,71.2,29.73,West,277,2.0,2.0,58,0.00,,,0.00,Wunderground v.1.13,2013-07-07 18:10:00,
2013-07-07 13:12:00,88.0,70.9,29.73,West,276,1.0,2.0,57,0.00,,,0.00,Wunderground v.1.13,2013-07-07 18:12:00,
2013-07-07 13:13:00,88.2,71.0,29.73,West,267,1.0,2.0,57,0.00,,,0.00,Wunderground v.1.13,2013-07-07 18:13:00,
2013-07-07 13:17:00,88.1,70.9,29.73,SE,145,2.0,5.0,57,0.00,,,0.00,Wunderground v.1.13,2013-07-07 18:17:00,
2013-07-07 13:19:00,87.9,71.3,29.73,SE,145,2.0,5.0,58,0.00,,,0.00,Wunderground v.1.13,2013-07-07 18:19:00,
2013-07-07 13:20:00,87.9,71.3,29.73,SE,145,2.0,2.0,58,0.00,,,0.00,Wunderground v.1.13,2013-07-07 18:20:00,
2013-07-07 13:21:00,87.9,71.8,29.73,ESE,109,2.0,6.0,59,0.00,,,0.00,Wunderground v.1.13,2013-07-07 18:21:00,
2013-07-07 13:25:00,87.2,71.1,29.73,ESE,116,4.0,5.0,59,0.00,,,0.00,Wunderground v.1.13,2013-07-07 18:25:00,
2013-07-07 13:26:00,87.2,71.1,29.73,ESE,119,4.0,5.0,59,0.00,,,0.00,Wunderground v.1.13,2013-07-07 18:26:00,
2013-07-07 13:27:00,87.2,71.1,29.73,ESE,121,4.0,5.0,59,0.00,,,0.00,Wunderground v.1.13,2013-07-07 18:27:00,
2013-07-07 13:28:00,87.3,71.2,29.73,ESE,121,3.0,5.0,59,0.00,,,0.00,Wunderground v.1.13,2013-07-07 18:28:00,
2013-07-07 13:31:00,87.5,71.4,29.73,ESE,107,4.0,4.0,59,0.00,,,0.00,Wunderground v.1.13,2013-07-07 18:31:00,
2013-07-07 13:33:00,87.6,72.0,29.73,ESE,119,3.0,6.0,60,0.00,,,0.00,Wunderground v.1.13,2013-07-07 18:33:00,
2013-07-07 13:36:00,87.5,71.4,29.73,ESE,121,3.0,5.0,59,0.00,,,0.00,Wunderground v.1.13,2013-07-07 18:36:00,
2013-07-07 13:37:00,87.5,71.4,29.73,ESE,119,4.0,5.0,59,0.00,,,0.00,Wunderground v.1.13,2013-07-07 18:37:00,
2013-07-07 13:40:00,87.6,71.0,29.73,ESE,119,3.0,3.0,58,0.00,,,0.00,Wunderground v.1.13,2013-07-07 18:40:00,
2013-07-07 13:42:00,87.9,71.8,29.73,ESE,119,3.0,3.0,59,0.00,,,0.00,Wunderground v.1.13,2013-07-07 18:42:00,
2013-07-07 13:44:00,88.4,71.7,29.73,ESE,119,2.0,3.0,58,0.00,,,0.00,Wunderground v.1.13,2013-07-07 18:44:00,
2013-07-07 13:46:00,88.6,71.9,29.73,ESE,119,2.0,4.0,58,0.00,,,0.00,Wunderground v.1.13,2013-07-07 18:46:00,
2013-07-07 13:47:00,88.7,72.0,29.73,ESE,119,2.0,5.0,58,0.00,,,0.00,Wunderground v.1.13,2013-07-07 18:47:00,
2013-07-07 13:50:00,88.3,71.6,29.73,ESE,119,2.0,3.0,58,0.00,,,0.00,Wunderground v.1.13,2013-07-07 18:50:00,
2013-07-07 13:51:00,88.3,71.6,29.73,ESE,111,3.0,6.0,58,0.00,,,0.00,Wunderground v.1.13,2013-07-07 18:51:00,
2013-07-07 13:55:00,87.5,71.9,29.73,ESE,117,4.0,4.0,60,0.00,,,0.00,Wunderground v.1.13,2013-07-07 18:55:00,
2013-07-07 13:56:00,87.4,71.3,29.73,ESE,119,4.0,4.0,59,0.00,,,0.00,Wunderground v.1.13,2013-07-07 18:56:00,
2013-07-07 13:57:00,87.4,71.8,29.73,ESE,119,4.0,4.0,60,0.00,,,0.00,Wunderground v.1.13,2013-07-07 18:57:00,
2013-07-07 14:01:00,87.6,71.5,29.73,ESE,119,4.0,5.0,59,0.00,,,0.00,Wunderground v.1.13,2013-07-07 19:01:00,
2013-07-07 14:04:00,87.9,71.3,29.73,ESE,119,3.0,5.0,58,0.00,,,0.00,Wunderground v.1.13,2013-07-07 19:04:00,
2013-07-07 14:05:00,88.0,71.4,29.73,ESE,119,2.0,2.0,58,0.00,,,0.00,Wunderground v.1.13,2013-07-07 19:05:00,
2013-07-07 14:11:00,88.1,70.9,29.73,ESE,123,2.0,7.0,57,0.00,,,0.00,Wunderground v.1.13,2013-07-07 19:11:00,
2013-07-07 14:12:00,87.9,72.3,29.73,ESE,115,3.0,8.0,60,0.00,,,0.00,Wunderground v.1.13,2013-07-07 19:12:00,
2013-07-07 14:13:00,87.7,71.1,29.74,SE,136,4.0,8.0,58,0.00,,,0.00,Wunderground v.1.13,2013-07-07 19:13:00,
2013-07-07 14:14:00,87.6,71.5,29.74,SE,135,4.0,8.0,59,0.00,,,0.00,Wunderground v.1.13,2013-07-07 19:14:00,
2013-07-07 14:15:00,87.6,71.0,29.74,SE,132,4.0,4.0,58,0.00,,,0.00,Wunderground v.1.13,2013-07-07 19:15:00,
2013-07-07 14:16:00,87.6,72.0,29.73,SE,130,4.0,4.0,60,0.00,,,0.00,Wunderground v.1.13,2013-07-07 19:16:00,
2013-07-07 14:20:00,87.8,71.2,29.74,South,190,3.0,3.0,58,0.00,,,0.00,Wunderground v.1.13,2013-07-07 19:20:00,
2013-07-07 14:22:00,88.1,71.5,29.74,West,269,2.0,7.0,58,0.00,,,0.00,Wunderground v.1.13,2013-07-07 19:22:00,
2013-07-07 14:25:00,88.7,71.5,29.73,ESE,115,2.0,5.0,57,0.00,,,0.00,Wunderground v.1.13,2013-07-07 19:25:00,
2013-07-07 14:26:00,88.9,72.7,29.73,ESE,120,2.0,5.0,59,0.00,,,0.00,Wunderground v.1.13,2013-07-07 19:26:00,
2013-07-07 14:27:00,89.0,71.3,29.73,ESE,120,2.0,5.0,56,0.00,,,0.00,Wunderground v.1.13,2013-07-07 19:27:00,
2013-07-07 14:30:00,88.7,71.5,29.73,SE,125,2.0,4.0,57,0.00,,,0.00,Wunderground v.1.13,2013-07-07 19:30:00,
2013-07-07 14:31:00,88.7,71.5,29.73,ESE,122,3.0,5.0,57,0.00,,,0.00,Wunderground v.1.13,2013-07-07 19:31:00,
2013-07-07 14:32:00,88.5,70.8,29.73,ESE,113,3.0,7.0,56,0.00,,,0.00,Wunderground v.1.13,2013-07-07 19:32:00,
2013-07-07 14:34:00,88.0,71.9,29.73,ESE,110,4.0,7.0,59,0.00,,,0.00,Wunderground v.1.13,2013-07-07 19:34:00,
2013-07-07 14:36:00,88.0,71.4,29.73,ESE,110,3.0,4.0,58,0.00,,,0.00,Wunderground v.1.13,2013-07-07 19:36:00,
2013-07-07 14:39:00,88.0,71.9,29.73,ESE,110,3.0,4.0,59,0.00,,,0.00,Wunderground v.1.13,2013-07-07 19:39:00,
2013-07-07 14:40:00,88.2,72.1,29.73,SE,142,2.0,2.0,59,0.00,,,0.00,Wunderground v.1.13,2013-07-07 19:40:00,
2013-07-07 14:41:00,88.3,71.6,29.72,ESE,115,2.0,4.0,58,0.00,,,0.00,Wunderground v.1.13,2013-07-07 19:41:00,
2013-07-07 14:42:00,88.3,71.6,29.73,ESE,118,2.0,6.0,58,0.00,,,0.00,Wunderground v.1.13,2013-07-07 19:42:00,
2013-07-07 14:45:00,88.2,71.0,29.73,SSE,154,2.0,2.0,57,0.00,,,0.00,Wunderground v.1.13,2013-07-07 19:45:00,
2013-07-07 14:48:00,88.1,72.0,29.73,ESE,123,3.0,5.0,59,0.00,,,0.00,Wunderground v.1.13,2013-07-07 19:48:00,
2013-07-07 14:49:00,88.0,71.4,29.73,ESE,121,4.0,5.0,58,0.00,,,0.00,Wunderground v.1.13,2013-07-07 19:49:00,
2013-07-07 14:52:00,87.5,70.9,29.73,ESE,111,4.0,8.0,58,0.00,,,0.00,Wunderground v.1.13,2013-07-07 19:52:00,
2013-07-07 14:53:00,87.3,72.2,29.72,East,96,4.0,8.0,61,0.00,,,0.00,Wunderground v.1.13,2013-07-07 19:53:00,
2013-07-07 14:56:00,86.9,71.8,29.72,ESE,115,5.0,6.0,61,0.00,,,0.00,Wunderground v.1.13,2013-07-07 19:56:00,
2013-07-07 14:57:00,86.8,72.7,29.72,ESE,121,5.0,6.0,63,0.00,,,0.00,Wunderground v.1.13,2013-07-07 19:57:00,
2013-07-07 14:58:00,86.7,72.1,29.72,ESE,121,4.0,6.0,62,0.00,,,0.00,Wunderground v.1.13,2013-07-07 19:58:00,
2013-07-07 15:00:00,86.7,71.6,29.72,SE,129,4.0,4.0,61,0.00,,,0.00,Wunderground v.1.13,2013-07-07 20:00:00,
2013-07-07 15:03:00,86.6,72.0,29.72,ESE,117,3.0,6.0,62,0.00,,,0.00,Wunderground v.1.13,2013-07-07 20:03:00,
2013-07-07 15:04:00,86.5,71.9,29.72,ESE,121,4.0,6.0,62,0.00,,,0.00,Wunderground v.1.13,2013-07-07 20:04:00,
2013-07-07 15:07:00,86.3,72.2,29.72,ESE,111,4.0,5.0,63,0.00,,,0.00,Wunderground v.1.13,2013-07-07 20:07:00,
2013-07-07 15:09:00,86.1,72.0,29.72,ESE,116,5.0,7.0,63,0.00,,,0.00,Wunderground v.1.13,2013-07-07 20:09:00,
2013-07-07 15:11:00,86.1,72.0,29.72,ESE,116,6.0,6.0,63,0.00,,,0.00,Wunderground v.1.13,2013-07-07 20:11:00,
2013-07-07 15:13:00,86.2,72.1,29.72,ESE,116,5.0,6.0,63,0.00,,,0.00,Wunderground v.1.13,2013-07-07 20:13:00,
2013-07-07 15:16:00,86.8,72.7,29.72,ESE,116,4.0,4.0,63,0.00,,,0.00,Wunderground v.1.13,2013-07-07 20:16:00,
2013-07-07 15:17:00,87.0,71.9,29.72,ESE,117,3.0,7.0,61,0.00,,,0.00,Wunderground v.1.13,2013-07-07 20:17:00,
2013-07-07 15:18:00,87.1,71.5,29.72,ESE,117,3.0,7.0,60,0.00,,,0.00,Wunderground v.1.13,2013-07-07 20:18:00,
2013-07-07 15:20:00,87.3,72.2,29.72,ESE,117,2.0,2.0,61,0.00,,,0.00,Wunderground v.1.13,2013-07-07 20:20:00,
2013-07-07 15:22:00,87.5,72.9,29.72,ESE,117,2.0,2.0,62,0.00,,,0.00,Wunderground v.1.13,2013-07-07 20:22:00,
2013-07-07 15:26:00,87.9,72.8,29.72,ESE,115,3.0,7.0,61,0.00,,,0.00,Wunderground v.1.13,2013-07-07 20:26:00,
2013-07-07 15:27:00,87.8,72.7,29.72,ESE,118,3.0,7.0,61,0.00,,,0.00,Wunderground v.1.13,2013-07-07 20:27:00,
2013-07-07 15:28:00,87.7,72.6,29.72,SE,125,3.0,7.0,61,0.00,,,0.00,Wunderground v.1.13,2013-07-07 20:28:00,
2013-07-07 15:29:00,87.5,72.4,29.72,SE,132,3.0,8.0,61,0.00,,,0.00,Wunderground v.1.13,2013-07-07 20:29:00,
2013-07-07 15:31:00,87.4,71.3,29.72,SE,130,4.0,4.0,59,0.00,,,0.00,Wunderground v.1.13,2013-07-07 20:31:00,
2013-07-07 15:33:00,87.5,72.9,29.72,SE,129,4.0,4.0,62,0.00,,,0.00,Wunderground v.1.13,2013-07-07 20:33:00,
2013-07-07 15:36:00,87.5,71.9,29.72,SE,130,3.0,5.0,60,0.00,,,0.00,Wunderground v.1.13,2013-07-07 20:36:00,
2013-07-07 15:37:00,87.5,71.9,29.72,SE,130,3.0,5.0,60,0.00,,,0.00,Wunderground v.1.13,2013-07-07 20:37:00,
2013-07-07 15:39:00,87.4,71.8,29.72,SE,129,3.0,5.0,60,0.00,,,0.00,Wunderground v.1.13,2013-07-07 20:39:00,
2013-07-07 15:42:00,87.5,70.9,29.72,SE,129,3.0,4.0,58,0.00,,,0.00,Wunderground v.1.13,2013-07-07 20:42:00,
2013-07-07 15:43:00,87.5,70.4,29.72,SE,130,3.0,4.0,57,0.00,,,0.00,Wunderground v.1.13,2013-07-07 20:43:00,
2013-07-07 15:44:00,87.7,71.1,29.72,SE,130,3.0,4.0,58,0.00,,,0.00,Wunderground v.1.13,2013-07-07 20:44:00,
2013-07-07 15:47:00,88.1,71.5,29.72,SE,129,3.0,5.0,58,0.00,,,0.00,Wunderground v.1.13,2013-07-07 20:47:00,
2013-07-07 15:49:00,88.3,72.2,29.71,SE,126,3.0,6.0,59,0.00,,,0.00,Wunderground v.1.13,2013-07-07 20:49:00,
2013-07-07 15:50:00,88.3,72.2,29.71,SE,126,3.0,3.0,59,0.00,,,0.00,Wunderground v.1.13,2013-07-07 20:50:00,
2013-07-07 15:53:00,88.4,72.2,29.71,ESE,117,3.0,5.0,59,0.00,,,0.00,Wunderground v.1.13,2013-07-07 20:53:00,
2013-07-07 15:55:00,88.3,72.7,29.71,SSE,160,4.0,4.0,60,0.00,,,0.00,Wunderground v.1.13,2013-07-07 20:55:00,
2013-07-07 15:57:00,88.3,73.1,29.71,SSE,153,3.0,4.0,61,0.00,,,0.00,Wunderground v.1.13,2013-07-07 20:57:00,
2013-07-07 15:58:00,88.3,72.7,29.71,SSE,154,3.0,4.0,60,0.00,,,0.00,Wunderground v.1.13,2013-07-07 20:58:00,
2013-07-07 16:00:00,88.1,72.5,29.71,SE,144,3.0,4.0,60,0.00,,,0.00,Wunderground v.1.13,2013-07-07 21:00:00,
2013-07-07 16:05:00,88.1,72.5,29.71,SW,225,2.0,2.0,60,0.00,,,0.00,Wunderground v.1.13,2013-07-07 21:05:00,
2013-07-07 16:06:00,88.1,71.5,29.72,SW,232,2.0,4.0,58,0.00,,,0.00,Wunderground v.1.13,2013-07-07 21:06:00,
2013-07-07 16:09:00,88.4,71.7,29.72,WSW,240,2.0,4.0,58,0.00,,,0.00,Wunderground v.1.13,2013-07-07 21:09:00,
2013-07-07 16:10:00,88.4,71.7,29.72,WSW,240,2.0,2.0,58,0.00,,,0.00,Wunderground v.1.13,2013-07-07 21:10:00,
2013-07-07 16:11:00,88.5,71.8,29.72,WSW,240,1.0,2.0,58,0.00,,,0.00,Wunderground v.1.13,2013-07-07 21:11:00,
2013-07-07 16:16:00,89.0,71.8,29.72,WSW,240,1.0,1.0,57,0.00,,,0.00,Wunderground v.1.13,2013-07-07 21:16:00,
2013-07-07 16:17:00,89.0,71.8,29.72,WSW,240,0.0,1.0,57,0.00,,,0.00,Wunderground v.1.13,2013-07-07 21:17:00,
2013-07-07 16:18:00,89.1,71.9,29.72,WSW,240,0.0,1.0,57,0.00,,,0.00,Wunderground v.1.13,2013-07-07 21:18:00,
2013-07-07 16:19:00,89.1,72.9,29.72,WSW,240,0.0,1.0,59,0.00,,,0.00,Wunderground v.1.13,2013-07-07 21:19:00,
2013-07-07 16:20:00,89.2,72.0,29.72,WSW,240,0.0,0.0,57,0.00,,,0.00,Wunderground v.1.13,2013-07-07 21:20:00,
2013-07-07 16:25:00,89.4,72.2,29.71,WSW,240,0.0,0.0,57,0.00,,,0.00,Wunderground v.1.13,2013-07-07 21:25:00,
2013-07-07 16:26:00,89.4,72.2,29.71,WSW,240,0.0,0.0,57,0.00,,,0.00,Wunderground v.1.13,2013-07-07 21:26:00,
2013-07-07 16:27:00,89.5,72.3,29.71,WSW,240,0.0,0.0,57,0.00,,,0.00,Wunderground v.1.13,2013-07-07 21:27:00,
2013-07-07 16:28:00,89.5,72.8,29.71,WSW,240,0.0,0.0,58,0.00,,,0.00,Wunderground v.1.13,2013-07-07 21:28:00,
2013-07-07 16:29:00,89.5,72.3,29.71,WSW,240,0.0,7.0,57,0.00,,,0.00,Wunderground v.1.13,2013-07-07 21:29:00,
2013-07-07 16:32:00,89.5,72.3,29.71,WSW,240,0.0,0.0,57,0.00,,,0.00,Wunderground v.1.13,2013-07-07 21:32:00,
2013-07-07 16:34:00,89.4,72.2,29.71,WSW,240,0.0,0.0,57,0.00,,,0.00,Wunderground v.1.13,2013-07-07 21:34:00,
2013-07-07 16:35:00,89.4,72.2,29.71,WSW,240,0.0,0.0,57,0.00,,,0.00,Wunderground v.1.13,2013-07-07 21:35:00,
2013-07-07 16:36:00,89.4,72.2,29.71,WSW,240,0.0,0.0,57,0.00,,,0.00,Wunderground v.1.13,2013-07-07 21:36:00,
2013-07-07 16:40:00,89.3,73.1,29.72,WSW,240,0.0,0.0,59,0.00,,,0.00,Wunderground v.1.13,2013-07-07 21:40:00,
2013-07-07 16:42:00,89.3,72.6,29.72,WSW,240,0.0,0.0,58,0.00,,,0.00,Wunderground v.1.13,2013-07-07 21:42:00,
2013-07-07 16:43:00,89.3,73.1,29.71,WSW,240,0.0,0.0,59,0.00,,,0.00,Wunderground v.1.13,2013-07-07 21:43:00,
2013-07-07 16:46:00,89.2,73.5,29.71,WSW,240,0.0,0.0,60,0.00,,,0.00,Wunderground v.1.13,2013-07-07 21:46:00,
2013-07-07 16:48:00,89.1,72.9,29.71,WSW,240,0.0,1.0,59,0.00,,,0.00,Wunderground v.1.13,2013-07-07 21:48:00,
2013-07-07 16:51:00,88.8,72.1,29.71,WSW,240,0.0,1.0,58,0.00,,,0.00,Wunderground v.1.13,2013-07-07 21:51:00,
2013-07-07 16:55:00,88.0,73.3,29.71,SSW,213,0.0,0.0,62,0.00,,,0.00,Wunderground v.1.13,2013-07-07 21:55:00,
2013-07-07 16:56:00,87.8,73.2,29.71,SSW,213,0.0,0.0,62,0.00,,,0.00,Wunderground v.1.13,2013-07-07 21:56:00,
2013-07-07 16:59:00,87.7,73.1,29.72,SSW,213,0.0,0.0,62,0.00,,,0.00,Wunderground v.1.13,2013-07-07 21:59:00,
2013-07-07 17:00:00,87.6,73.4,29.72,SSW,213,0.0,0.0,63,0.00,,,0.00,Wunderground v.1.13,2013-07-07 22:00:00,
2013-07-07 17:01:00,87.7,73.5,29.72,SSW,213,0.0,0.0,63,0.00,,,0.00,Wunderground v.1.13,2013-07-07 22:01:00,
2013-07-07 17:03:00,87.9,73.7,29.72,SSW,213,0.0,0.0,63,0.00,,,0.00,Wunderground v.1.13,2013-07-07 22:03:00,
2013-07-07 17:07:00,88.0,72.9,29.71,SSW,213,0.0,3.0,61,0.00,,,0.00,Wunderground v.1.13,2013-07-07 22:07:00,
2013-07-07 17:08:00,88.0,73.3,29.71,SSW,213,0.0,3.0,62,0.00,,,0.00,Wunderground v.1.13,2013-07-07 22:08:00,
2013-07-07 17:10:00,87.9,73.3,29.71,SSW,213,0.0,0.0,62,0.00,,,0.00,Wunderground v.1.13,2013-07-07 22:10:00,
2013-07-07 17:12:00,87.7,73.1,29.71,SSW,213,0.0,1.0,62,0.00,,,0.00,Wunderground v.1.13,2013-07-07 22:12:00,
2013-07-07 17:13:00,87.6,72.5,29.71,SSW,213,0.0,1.0,61,0.00,,,0.00,Wunderground v.1.13,2013-07-07 22:13:00,
2013-07-07 17:14:00,87.5,72.4,29.72,SSW,213,0.0,1.0,61,0.00,,,0.00,Wunderground v.1.13,2013-07-07 22:14:00,
2013-07-07 17:16:00,87.5,72.4,29.72,NNE,14,0.0,9.0,61,0.00,,,0.00,Wunderground v.1.13,2013-07-07 22:16:00,
2013-07-07 17:17:00,87.4,71.8,29.72,NNE,20,1.0,9.0,60,0.00,,,0.00,Wunderground v.1.13,2013-07-07 22:17:00,
2013-07-07 17:19:00,86.3,68.2,29.72,North,350,2.0,9.0,55,0.00,,,0.00,Wunderground v.1.13,2013-07-07 22:19:00,
2013-07-07 17:21:00,85.5,68.0,29.72,NNE,22,3.0,7.0,56,0.00,,,0.00,Wunderground v.1.13,2013-07-07 22:21:00,
2013-07-07 17:22:00,85.0,67.5,29.72,North,360,4.0,7.0,56,0.00,,,0.00,Wunderground v.1.13,2013-07-07 22:22:00,
2013-07-07 17:25:00,84.0,67.1,29.73,NNE,23,5.0,5.0,57,0.00,,,0.00,Wunderground v.1.13,2013-07-07 22:25:00,
2013-07-07 17:27:00,83.4,67.6,29.73,NNE,22,4.0,5.0,59,0.00,,,0.00,Wunderground v.1.13,2013-07-07 22:27:00,
2013-07-07 17:28:00,83.2,67.4,29.74,NNE,29,3.0,5.0,59,0.00,,,0.00,Wunderground v.1.13,2013-07-07 22:28:00,
2013-07-07 17:32:00,82.2,67.4,29.74,NNE,24,3.0,6.0,61,0.00,,,0.00,Wunderground v.1.13,2013-07-07 22:32:00,
2013-07-07 17:33:00,81.9,67.1,29.74,NW,307,3.0,6.0,61,0.00,,,0.00,Wunderground v.1.13,2013-07-07 22:33:00,
2013-07-07 17:35:00,81.5,67.2,29.74,NNE,24,3.0,7.0,62,0.00,,,0.00,Wunderground v.1.13,2013-07-07 22:35:00,
2013-07-07 17:36:00,81.2,66.5,29.74,NNE,28,3.0,7.0,61,0.00,,,0.00,Wunderground v.1.13,2013-07-07 22:36:00,
2013-07-07 17:38:00,80.7,66.0,29.74,WSW,243,4.0,8.0,61,0.00,,,0.00,Wunderground v.1.13,2013-07-07 22:38:00,
2013-07-07 17:40:00,80.2,65.1,29.74,NNE,16,4.0,5.0,60,0.00,,,0.00,Wunderground v.1.13,2013-07-07 22:40:00,
2013-07-07 17:44:00,79.0,63.4,29.75,North,360,6.0,13.0,59,0.00,,,0.00,Wunderground v.1.13,2013-07-07 22:44:00,
2013-07-07 17:47:00,77.8,64.2,29.75,West,273,8.0,11.0,63,0.00,,,0.00,Wunderground v.1.13,2013-07-07 22:47:00,
2013-07-07 17:49:00,77.1,64.4,29.75,ENE,76,8.0,11.0,65,0.00,,,0.00,Wunderground v.1.13,2013-07-07 22:49:00,
2013-07-07 17:52:00,75.7,64.8,29.75,WNW,300,8.0,10.0,69,0.00,,,0.01,Wunderground v.1.13,2013-07-07 22:52:00,
2013-07-07 17:54:00,74.3,65.1,29.77,West,271,8.0,13.0,73,3.29,,,0.09,Wunderground v.1.13,2013-07-07 22:54:00,
2013-07-07 17:56:00,72.5,65.2,29.78,West,281,8.0,18.0,78,6.70,,,0.27,Wunderground v.1.13,2013-07-07 22:56:00,
2013-07-07 17:57:00,71.7,64.8,29.78,West,267,10.0,18.0,79,14.77,,,0.36,Wunderground v.1.13,2013-07-07 22:57:00,
2013-07-07 17:58:00,71.0,64.9,29.79,WNW,286,11.0,20.0,81,8.73,,,0.48,Wunderground v.1.13,2013-07-07 22:58:00,
2013-07-07 18:02:00,71.2,66.8,29.77,East,95,15.0,24.0,86,10.29,,,0.82,Wunderground v.1.13,2013-07-07 23:02:00,
2013-07-07 18:04:00,71.8,67.0,29.77,East,86,16.0,24.0,85,4.20,,,0.92,Wunderground v.1.13,2013-07-07 23:04:00,
2013-07-07 18:05:00,71.7,66.9,29.76,East,83,17.0,19.0,85,4.68,,,0.96,Wunderground v.1.13,2013-07-07 23:05:00,
2013-07-07 18:09:00,71.0,66.9,29.75,NE,44,16.0,19.0,87,0.64,,,1.03,Wunderground v.1.13,2013-07-07 23:09:00,
2013-07-07 18:10:00,70.8,66.4,29.76,NE,55,15.0,15.0,86,0.33,,,1.03,Wunderground v.1.13,2013-07-07 23:10:00,
2013-07-07 18:13:00,70.5,66.8,29.77,NNW,329,12.0,15.0,88,0.13,,,1.03,Wunderground v.1.13,2013-07-07 23:13:00,
2013-07-07 18:15:00,70.0,66.3,29.77,NE,37,9.0,9.0,88,0.09,,,1.03,Wunderground v.1.13,2013-07-07 23:15:00,
2013-07-07 18:19:00,69.3,65.9,29.76,NNE,22,5.0,9.0,89,0.07,,,1.04,Wunderground v.1.13,2013-07-07 23:19:00,
2013-07-07 18:22:00,68.9,65.5,29.77,ESE,102,5.0,6.0,89,0.07,,,1.04,Wunderground v.1.13,2013-07-07 23:22:00,
2013-07-07 18:23:00,68.8,65.4,29.77,ESE,115,5.0,6.0,89,0.07,,,1.04,Wunderground v.1.13,2013-07-07 23:23:00,
2013-07-07 18:25:00,68.9,65.8,29.77,ESE,117,4.0,4.0,90,0.07,,,1.04,Wunderground v.1.13,2013-07-07 23:25:00,
2013-07-07 18:27:00,68.8,65.7,29.77,ESE,117,3.0,4.0,90,0.06,,,1.04,Wunderground v.1.13,2013-07-07 23:27:00,
2013-07-07 18:28:00,68.8,65.7,29.77,ESE,117,3.0,4.0,90,0.05,,,1.04,Wunderground v.1.13,2013-07-07 23:28:00,
2013-07-07 18:33:00,68.9,66.2,29.77,ESE,119,4.0,9.0,91,0.04,,,1.04,Wunderground v.1.13,2013-07-07 23:33:00,
2013-07-07 18:34:00,68.8,66.1,29.76,ESE,118,3.0,9.0,91,0.00,,,1.04,Wunderground v.1.13,2013-07-07 23:34:00,
2013-07-07 18:35:00,68.7,65.6,29.76,ESE,119,3.0,3.0,90,0.00,,,1.04,Wunderground v.1.13,2013-07-07 23:35:00,
2013-07-07 18:37:00,68.7,65.6,29.76,ESE,119,3.0,3.0,90,0.00,,,1.04,Wunderground v.1.13,2013-07-07 23:37:00,
2013-07-07 18:39:00,68.6,65.9,29.76,ESE,119,3.0,4.0,91,0.00,,,1.04,Wunderground v.1.13,2013-07-07 23:39:00,
2013-07-07 18:42:00,68.7,66.0,29.76,ESE,118,1.0,3.0,91,0.00,,,1.04,Wunderground v.1.13,2013-07-07 23:42:00,
2013-07-07 18:43:00,68.6,65.9,29.76,ESE,119,1.0,3.0,91,0.00,,,1.04,Wunderground v.1.13,2013-07-07 23:43:00,
2013-07-07 18:45:00,68.6,65.9,29.76,ESE,119,1.0,1.0,91,0.00,,,1.04,Wunderground v.1.13,2013-07-07 23:45:00,
2013-07-07 18:46:00,68.6,65.9,29.77,SSE,156,1.0,2.0,91,0.00,,,1.04,Wunderground v.1.13,2013-07-07 23:46:00,
2013-07-07 18:47:00,68.5,65.8,29.77,SSE,156,1.0,2.0,91,0.00,,,1.04,Wunderground v.1.13,2013-07-07 23:47:00,
2013-07-07 18:49:00,68.3,65.6,29.77,West,273,2.0,5.0,91,0.00,,,1.04,Wunderground v.1.13,2013-07-07 23:49:00,
2013-07-07 18:52:00,68.1,65.7,29.79,SSW,194,2.0,4.0,92,0.00,,,1.04,Wunderground v.1.13,2013-07-07 23:52:00,
2013-07-07 18:53:00,68.1,65.4,29.79,SSE,153,2.0,4.0,91,0.00,,,1.04,Wunderground v.1.13,2013-07-07 23:53:00,
2013-07-07 18:56:00,68.0,65.6,29.79,South,182,2.0,2.0,92,0.00,,,1.04,Wunderground v.1.13,2013-07-07 23:56:00,
2013-07-07 18:58:00,68.1,65.7,29.79,South,186,2.0,2.0,92,0.00,,,1.04,Wunderground v.1.13,2013-07-07 23:58:00,
2013-07-07 18:59:00,68.1,65.7,29.79,South,186,2.0,2.0,92,0.00,,,1.04,Wunderground v.1.13,2013-07-07 23:59:00,
2013-07-07 19:01:00,68.2,65.8,29.79,South,186,2.0,3.0,92,0.00,,,1.04,Wunderground v.1.13,2013-07-08 00:01:00,
2013-07-07 19:02:00,68.2,65.8,29.78,WSW,244,2.0,5.0,92,0.00,,,1.05,Wunderground v.1.13,2013-07-08 00:02:00,
2013-07-07 19:03:00,68.2,65.8,29.78,WSW,244,2.0,5.0,92,0.00,,,1.05,Wunderground v.1.13,2013-07-08 00:03:00,
2013-07-07 19:06:00,68.3,66.2,29.78,WSW,244,2.0,2.0,93,0.00,,,1.05,Wunderground v.1.13,2013-07-08 00:06:00,
2013-07-07 19:08:00,68.3,66.2,29.78,WSW,244,2.0,2.0,93,0.00,,,1.05,Wunderground v.1.13,2013-07-08 00:08:00,
2013-07-07 19:09:00,68.3,66.2,29.77,WSW,244,1.0,2.0,93,0.00,,,1.05,Wunderground v.1.13,2013-07-08 00:09:00,
2013-07-07 19:10:00,68.3,66.2,29.77,WSW,244,1.0,1.0,93,0.00,,,1.05,Wunderground v.1.13,2013-07-08 00:10:00,
2013-07-07 19:12:00,68.3,66.2,29.77,WSW,244,1.0,1.0,93,0.00,,,1.05,Wunderground v.1.13,2013-07-08 00:12:00,
2013-07-07 19:14:00,68.4,66.3,29.78,WSW,244,0.0,1.0,93,0.00,,,1.05,Wunderground v.1.13,2013-07-08 00:14:00,
2013-07-07 19:16:00,68.4,66.3,29.78,WSW,244,0.0,0.0,93,0.00,,,1.05,Wunderground v.1.13,2013-07-08 00:16:00,
2013-07-07 19:17:00,68.5,66.4,29.77,WSW,244,0.0,0.0,93,0.00,,,1.05,Wunderground v.1.13,2013-07-08 00:17:00,
2013-07-07 19:18:00,68.5,66.4,29.77,WSW,244,0.0,0.0,93,0.00,,,1.05,Wunderground v.1.13,2013-07-08 00:18:00,
2013-07-07 19:21:00,68.4,66.3,29.78,WSW,244,1.0,3.0,93,0.00,,,1.06,Wunderground v.1.13,2013-07-08 00:21:00,
2013-07-07 19:22:00,68.4,66.3,29.78,WSW,244,1.0,3.0,93,0.00,,,1.06,Wunderground v.1.13,2013-07-08 00:22:00,
2013-07-07 19:24:00,68.3,66.2,29.78,WSW,244,1.0,3.0,93,0.00,,,1.06,Wunderground v.1.13,2013-07-08 00:24:00,
2013-07-07 19:28:00,68.4,66.3,29.78,WSW,244,1.0,4.0,93,0.00,,,1.06,Wunderground v.1.13,2013-07-08 00:28:00,
2013-07-07 19:31:00,68.4,66.3,29.78,WSW,244,1.0,2.0,93,0.05,,,1.07,Wunderground v.1.13,2013-07-08 00:31:00,
2013-07-07 19:32:00,68.4,66.3,29.77,WSW,244,1.0,2.0,93,0.05,,,1.07,Wunderground v.1.13,2013-07-08 00:32:00,
2013-07-07 19:33:00,68.4,66.3,29.78,WSW,244,1.0,2.0,93,0.05,,,1.07,Wunderground v.1.13,2013-07-08 00:33:00,
2013-07-07 19:34:00,68.4,66.3,29.77,WSW,244,1.0,2.0,93,0.05,,,1.07,Wunderground v.1.13,2013-07-08 00:34:00,
2013-07-07 19:38:00,68.7,66.6,29.78,WSW,242,1.0,4.0,93,0.05,,,1.07,Wunderground v.1.13,2013-07-08 00:38:00,
2013-07-07 19:39:00,68.7,66.6,29.78,WSW,242,1.0,4.0,93,0.05,,,1.07,Wunderground v.1.13,2013-07-08 00:39:00,
2013-07-07 19:41:00,68.7,66.6,29.78,WSW,242,1.0,4.0,93,0.05,,,1.07,Wunderground v.1.13,2013-07-08 00:41:00,
2013-07-07 19:42:00,68.8,66.7,29.79,WSW,242,1.0,4.0,93,0.05,,,1.07,Wunderground v.1.13,2013-07-08 00:42:00,
2013-07-07 19:44:00,68.8,66.7,29.79,WSW,242,1.0,4.0,93,0.04,,,1.07,Wunderground v.1.13,2013-07-08 00:44:00,
2013-07-07 19:45:00,68.8,66.7,29.79,WSW,242,1.0,1.0,93,0.04,,,1.07,Wunderground v.1.13,2013-07-08 00:45:00,
2013-07-07 19:47:00,68.9,66.8,29.79,WSW,242,1.0,1.0,93,0.04,,,1.07,Wunderground v.1.13,2013-07-08 00:47:00,
2013-07-07 19:49:00,69.0,66.9,29.79,WSW,242,1.0,2.0,93,0.00,,,1.07,Wunderground v.1.13,2013-07-08 00:49:00,
2013-07-07 19:52:00,69.1,67.3,29.79,SW,228,1.0,3.0,94,0.00,,,1.07,Wunderground v.1.13,2013-07-08 00:52:00,
2013-07-07 19:53:00,69.1,67.3,29.79,SW,228,1.0,3.0,94,0.00,,,1.07,Wunderground v.1.13,2013-07-08 00:53:00,
2013-07-07 19:54:00,69.1,67.3,29.79,SW,228,1.0,3.0,94,0.00,,,1.07,Wunderground v.1.13,2013-07-08 00:54:00,
2013-07-07 19:55:00,69.2,67.4,29.78,SW,228,1.0,1.0,94,0.00,,,1.07,Wunderground v.1.13,2013-07-08 00:55:00,
2013-07-07 19:59:00,69.2,67.4,29.78,SW,228,1.0,1.0,94,0.00,,,1.07,Wunderground v.1.13,2013-07-08 00:59:00,
2013-07-07 20:01:00,69.3,67.5,29.78,SW,228,0.0,1.0,94,0.00,,,1.07,Wunderground v.1.13,2013-07-08 01:01:00,
2013-07-07 20:02:00,69.3,67.5,29.78,SW,228,0.0,2.0,94,0.00,,,1.07,Wunderground v.1.13,2013-07-08 01:02:00,
2013-07-07 20:04:00,69.5,67.7,29.78,West,262,1.0,4.0,94,0.00,,,1.07,Wunderground v.1.13,2013-07-08 01:04:00,
2013-07-07 20:05:00,69.6,67.8,29.78,West,262,1.0,2.0,94,0.00,,,1.07,Wunderground v.1.13,2013-07-08 01:05:00,
2013-07-07 20:07:00,69.7,67.9,29.78,West,261,1.0,2.0,94,0.00,,,1.07,Wunderground v.1.13,2013-07-08 01:07:00,
2013-07-07 20:08:00,69.7,67.9,29.78,West,262,1.0,2.0,94,0.00,,,1.07,Wunderground v.1.13,2013-07-08 01:08:00,
2013-07-07 20:11:00,69.9,68.1,29.78,West,261,1.0,1.0,94,0.00,,,1.07,Wunderground v.1.13,2013-07-08 01:11:00,
2013-07-07 20:12:00,69.9,68.1,29.78,West,262,1.0,1.0,94,0.00,,,1.07,Wunderground v.1.13,2013-07-08 01:12:00,
2013-07-07 20:13:00,70.0,68.2,29.78,West,262,1.0,1.0,94,0.00,,,1.07,Wunderground v.1.13,2013-07-08 01:13:00,
2013-07-07 20:15:00,70.1,68.3,29.78,West,261,0.0,0.0,94,0.00,,,1.07,Wunderground v.1.13,2013-07-08 01:15:00,
2013-07-07 20:16:00,70.1,68.3,29.78,West,279,0.0,2.0,94,0.00,,,1.07,Wunderground v.1.13,2013-07-08 01:16:00,
2013-07-07 20:18:00,70.1,68.3,29.78,West,279,1.0,2.0,94,0.00,,,1.07,Wunderground v.1.13,2013-07-08 01:18:00,
2013-07-07 20:20:00,70.0,68.2,29.77,West,279,1.0,2.0,94,0.00,,,1.07,Wunderground v.1.13,2013-07-08 01:20:00,
2013-07-07 20:22:00,70.0,68.2,29.77,West,278,1.0,2.0,94,0.00,,,1.07,Wunderground v.1.13,2013-07-08 01:22:00,
2013-07-07 20:23:00,70.1,68.3,29.77,SE,127,1.0,6.0,94,0.00,,,1.07,Wunderground v.1.13,2013-07-08 01:23:00,
2013-07-07 20:25:00,70.2,68.4,29.76,ESE,117,2.0,5.0,94,0.00,,,1.07,Wunderground v.1.13,2013-07-08 01:25:00,
2013-07-07 20:27:00,70.4,68.6,29.76,ESE,121,3.0,7.0,94,0.00,,,1.07,Wunderground v.1.13,2013-07-08 01:27:00,
2013-07-07 20:28:00,70.5,68.7,29.76,ESE,119,4.0,7.0,94,0.00,,,1.07,Wunderground v.1.13,2013-07-08 01:28:00,
2013-07-07 20:29:00,70.6,68.8,29.76,ESE,120,4.0,7.0,94,0.00,,,1.07,Wunderground v.1.13,2013-07-08 01:29:00,
2013-07-07 20:31:00,70.6,68.8,29.76,ESE,120,4.0,9.0,94,0.00,,,1.07,Wunderground v.1.13,2013-07-08 01:31:00,
2013-07-07 20:34:00,70.6,68.8,29.76,ESE,119,6.0,9.0,94,0.00,,,1.07,Wunderground v.1.13,2013-07-08 01:34:00,
2013-07-07 20:36:00,70.6,68.8,29.76,ESE,106,6.0,6.0,94,0.00,,,1.07,Wunderground v.1.13,2013-07-08 01:36:00,
2013-07-07 20:37:00,70.6,68.8,29.76,ESE,106,6.0,6.0,94,0.00,,,1.07,Wunderground v.1.13,2013-07-08 01:37:00,
2013-07-07 20:38:00,70.4,68.6,29.77,ESE,106,6.0,6.0,94,0.00,,,1.07,Wunderground v.1.13,2013-07-08 01:38:00,
2013-07-07 20:41:00,70.3,68.5,29.77,ESE,106,5.0,5.0,94,0.00,,,1.07,Wunderground v.1.13,2013-07-08 01:41:00,
2013-07-07 20:42:00,70.3,68.5,29.77,ESE,106,4.0,5.0,94,0.00,,,1.07,Wunderground v.1.13,2013-07-08 01:42:00,
2013-07-07 20:43:00,70.3,68.5,29.77,ESE,106,3.0,5.0,94,0.00,,,1.07,Wunderground v.1.13,2013-07-08 01:43:00,
2013-07-07 20:45:00,70.3,68.5,29.77,ESE,106,2.0,2.0,94,0.00,,,1.07,Wunderground v.1.13,2013-07-08 01:45:00,
2013-07-07 20:48:00,70.2,68.4,29.77,ESE,106,1.0,2.0,94,0.00,,,1.07,Wunderground v.1.13,2013-07-08 01:48:00,
2013-07-07 20:49:00,70.2,68.4,29.77,ESE,106,0.0,2.0,94,0.00,,,1.07,Wunderground v.1.13,2013-07-08 01:49:00,
2013-07-07 20:52:00,69.8,68.0,29.77,ESE,106,1.0,4.0,94,0.00,,,1.07,Wunderground v.1.13,2013-07-08 01:52:00,
2013-07-07 20:53:00,69.8,68.0,29.77,ESE,106,1.0,4.0,94,0.00,,,1.07,Wunderground v.1.13,2013-07-08 01:53:00,
2013-07-07 20:54:00,69.9,68.1,29.78,ENE,78,1.0,4.0,94,0.00,,,1.07,Wunderground v.1.13,2013-07-08 01:54:00,
2013-07-07 20:56:00,70.1,68.3,29.78,NE,47,2.0,6.0,94,0.00,,,1.07,Wunderground v.1.13,2013-07-08 01:56:00,
2013-07-07 21:01:00,70.1,68.3,29.78,NNE,23,5.0,5.0,94,0.00,,,1.07,Wunderground v.1.13,2013-07-08 02:01:00,
2013-07-07 21:02:00,70.1,68.3,29.79,NNE,23,5.0,5.0,94,0.00,,,1.07,Wunderground v.1.13,2013-07-08 02:02:00,
2013-07-07 21:04:00,69.9,68.1,29.79,NNE,23,4.0,5.0,94,0.00,,,1.07,Wunderground v.1.13,2013-07-08 02:04:00,
2013-07-07 21:06:00,69.8,68.0,29.79,NNE,23,4.0,4.0,94,0.00,,,1.07,Wunderground v.1.13,2013-07-08 02:06:00,
2013-07-07 21:08:00,69.7,67.9,29.79,NNW,334,3.0,6.0,94,0.00,,,1.07,Wunderground v.1.13,2013-07-08 02:08:00,
2013-07-07 21:10:00,69.6,67.8,29.79,NW,305,2.0,5.0,94,0.00,,,1.07,Wunderground v.1.13,2013-07-08 02:10:00,
2013-07-07 21:12:00,69.5,67.7,29.79,NW,304,2.0,5.0,94,0.00,,,1.07,Wunderground v.1.13,2013-07-08 02:12:00,
2013-07-07 21:13:00,69.5,67.7,29.79,WNW,294,2.0,6.0,94,0.00,,,1.07,Wunderground v.1.13,2013-07-08 02:13:00,
2013-07-07 21:14:00,69.4,67.6,29.79,NNW,336,3.0,6.0,94,0.00,,,1.07,Wunderground v.1.13,2013-07-08 02:14:00,
2013-07-07 21:15:00,69.4,67.6,29.80,NNW,332,3.0,3.0,94,0.00,,,1.07,Wunderground v.1.13,2013-07-08 02:15:00,
2013-07-07 21:18:00,69.4,67.6,29.79,NNW,332,3.0,3.0,94,0.00,,,1.07,Wunderground v.1.13,2013-07-08 02:18:00,
2013-07-07 21:20:00,69.5,67.7,29.79,NNW,332,2.0,2.0,94,0.00,,,1.07,Wunderground v.1.13,2013-07-08 02:20:00,
2013-07-07 21:21:00,69.5,67.7,29.79,NNW,332,2.0,2.0,94,0.00,,,1.07,Wunderground v.1.13,2013-07-08 02:21:00,
2013-07-07 21:24:00,69.5,67.7,29.79,NNW,331,1.0,2.0,94,0.00,,,1.07,Wunderground v.1.13,2013-07-08 02:24:00,
2013-07-07 21:25:00,69.4,67.6,29.79,NNW,332,1.0,1.0,94,0.00,,,1.07,Wunderground v.1.13,2013-07-08 02:25:00,
2013-07-07 21:26:00,69.5,67.7,29.79,NNW,332,1.0,2.0,94,0.00,,,1.07,Wunderground v.1.13,2013-07-08 02:26:00,
2013-07-07 21:28:00,69.5,67.7,29.79,NNW,331,1.0,2.0,94,0.00,,,1.07,Wunderground v.1.13,2013-07-08 02:28:00,
2013-07-07 21:31:00,69.4,67.6,29.79,NNW,331,1.0,1.0,94,0.00,,,1.07,Wunderground v.1.13,2013-07-08 02:31:00,
2013-07-07 21:32:00,69.4,67.6,29.79,NNW,332,1.0,1.0,94,0.00,,,1.07,Wunderground v.1.13,2013-07-08 02:32:00,
2013-07-07 21:34:00,69.3,67.5,29.79,NNW,332,1.0,4.0,94,0.00,,,1.07,Wunderground v.1.13,2013-07-08 02:34:00,
2013-07-07 21:37:00,69.7,67.9,29.78,ESE,120,2.0,7.0,94,0.00,,,1.07,Wunderground v.1.13,2013-07-08 02:37:00,
2013-07-07 21:40:00,70.6,68.8,29.78,ESE,115,4.0,6.0,94,0.00,,,1.07,Wunderground v.1.13,2013-07-08 02:40:00,
2013-07-07 21:42:00,70.6,68.8,29.78,ESE,119,5.0,6.0,94,0.00,,,1.07,Wunderground v.1.13,2013-07-08 02:42:00,
2013-07-07 21:44:00,70.6,68.8,29.78,ESE,120,6.0,6.0,94,0.00,,,1.07,Wunderground v.1.13,2013-07-08 02:44:00,
2013-07-07 21:47:00,70.6,68.8,29.78,ESE,119,5.0,6.0,94,0.00,,,1.07,Wunderground v.1.13,2013-07-08 02:47:00,
2013-07-07 21:48:00,70.6,68.8,29.78,ESE,120,4.0,6.0,94,0.00,,,1.07,Wunderground v.1.13,2013-07-08 02:48:00,
2013-07-07 21:49:00,70.5,68.7,29.78,ESE,120,4.0,6.0,94,0.00,,,1.07,Wunderground v.1.13,2013-07-08 02:49:00,
2013-07-07 21:52:00,70.2,68.4,29.78,ESE,120,3.0,3.0,94,0.00,,,1.07,Wunderground v.1.13,2013-07-08 02:52:00,
2013-07-07 21:54:00,69.9,68.1,29.78,ESE,120,2.0,3.0,94,0.00,,,1.07,Wunderground v.1.13,2013-07-08 02:54:00,
2013-07-07 21:55:00,69.9,68.1,29.78,ESE,120,2.0,3.0,94,0.00,,,1.07,Wunderground v.1.13,2013-07-08 02:55:00,
2013-07-07 21:58:00,69.6,67.8,29.78,ESE,120,2.0,5.0,94,0.00,,,1.07,Wunderground v.1.13,2013-07-08 02:58:00,
2013-07-07 21:59:00,69.5,67.7,29.78,ESE,119,2.0,5.0,94,0.00,,,1.07,Wunderground v.1.13,2013-07-08 02:59:00,
2013-07-07 22:00:00,69.5,67.7,29.78,ESE,119,2.0,5.0,94,0.00,,,1.07,Wunderground v.1.13,2013-07-08 03:00:00,
2013-07-07 22:02:00,69.3,67.5,29.78,WNW,283,3.0,5.0,94,0.00,,,1.07,Wunderground v.1.13,2013-07-08 03:02:00,
2013-07-07 22:05:00,69.2,67.4,29.78,West,280,3.0,4.0,94,0.00,,,1.07,Wunderground v.1.13,2013-07-08 03:05:00,
2013-07-07 22:07:00,69.1,67.3,29.78,West,280,4.0,4.0,94,0.00,,,1.07,Wunderground v.1.13,2013-07-08 03:07:00,
2013-07-07 22:08:00,69.0,67.2,29.78,West,280,4.0,4.0,94,0.00,,,1.07,Wunderground v.1.13,2013-07-08 03:08:00,
2013-07-07 22:12:00,68.9,67.1,29.78,West,280,2.0,3.0,94,0.00,,,1.07,Wunderground v.1.13,2013-07-08 03:12:00,
2013-07-07 22:13:00,68.9,67.1,29.78,West,280,2.0,3.0,94,0.00,,,1.07,Wunderground v.1.13,2013-07-08 03:13:00,
2013-07-07 22:14:00,68.9,67.1,29.77,West,280,2.0,3.0,94,0.00,,,1.07,Wunderground v.1.13,2013-07-08 03:14:00,
2013-07-07 22:15:00,68.9,67.1,29.77,West,280,1.0,1.0,94,0.00,,,1.07,Wunderground v.1.13,2013-07-08 03:15:00,
2013-07-07 22:16:00,68.9,67.1,29.77,West,280,1.0,1.0,94,0.00,,,1.07,Wunderground v.1.13,2013-07-08 03:16:00,
2013-07-07 22:21:00,68.8,67.0,29.77,West,280,1.0,2.0,94,0.00,,,1.07,Wunderground v.1.13,2013-07-08 03:21:00,
2013-07-07 22:22:00,68.7,66.9,29.77,WNW,282,1.0,2.0,94,0.00,,,1.07,Wunderground v.1.13,2013-07-08 03:22:00,
2013-07-07 22:23:00,68.7,66.9,29.77,WNW,282,1.0,2.0,94,0.00,,,1.07,Wunderground v.1.13,2013-07-08 03:23:00,
2013-07-07 22:25:00,68.6,66.8,29.77,WNW,283,1.0,2.0,94,0.00,,,1.07,Wunderground v.1.13,2013-07-08 03:25:00,
2013-07-07 22:28:00,68.5,66.7,29.77,WNW,287,1.0,4.0,94,0.00,,,1.07,Wunderground v.1.13,2013-07-08 03:28:00,
2013-07-07 22:30:00,68.5,66.7,29.77,WNW,288,2.0,2.0,94,0.00,,,1.07,Wunderground v.1.13,2013-07-08 03:30:00,
2013-07-07 22:31:00,68.5,66.7,29.77,WNW,288,2.0,2.0,94,0.00,,,1.07,Wunderground v.1.13,2013-07-08 03:31:00,
2013-07-07 22:33:00,68.5,66.7,29.77,WNW,288,2.0,2.0,94,0.00,,,1.07,Wunderground v.1.13,2013-07-08 03:33:00,
2013-07-07 22:35:00,68.4,66.6,29.77,WNW,292,2.0,2.0,94,0.00,,,1.07,Wunderground v.1.13,2013-07-08 03:35:00,
2013-07-07 22:36:00,68.4,66.6,29.77,WNW,292,2.0,2.0,94,0.00,,,1.07,Wunderground v.1.13,2013-07-08 03:36:00,
2013-07-07 22:40:00,68.4,66.9,29.77,WNW,290,2.0,2.0,95,0.00,,,1.07,Wunderground v.1.13,2013-07-08 03:40:00,
2013-07-07 22:42:00,68.4,66.6,29.77,WNW,290,2.0,2.0,94,0.00,,,1.07,Wunderground v.1.13,2013-07-08 03:42:00,
2013-07-07 22:44:00,68.3,66.5,29.77,WNW,290,1.0,2.0,94,0.00,,,1.07,Wunderground v.1.13,2013-07-08 03:44:00,
2013-07-07 22:45:00,68.3,66.5,29.78,WNW,290,1.0,1.0,94,0.00,,,1.07,Wunderground v.1.13,2013-07-08 03:45:00,
2013-07-07 22:47:00,68.3,66.5,29.78,WNW,290,1.0,1.0,94,0.00,,,1.07,Wunderground v.1.13,2013-07-08 03:47:00,
2013-07-07 22:52:00,68.3,66.5,29.78,WNW,291,1.0,2.0,94,0.00,,,1.07,Wunderground v.1.13,2013-07-08 03:52:00,
2013-07-07 22:53:00,68.3,66.5,29.78,WNW,291,1.0,2.0,94,0.00,,,1.07,Wunderground v.1.13,2013-07-08 03:53:00,
2013-07-07 22:54:00,68.3,66.5,29.78,WNW,292,1.0,2.0,94,0.00,,,1.07,Wunderground v.1.13,2013-07-08 03:54:00,
2013-07-07 22:57:00,68.2,66.4,29.78,WNW,292,1.0,1.0,94,0.00,,,1.07,Wunderground v.1.13,2013-07-08 03:57:00,
2013-07-07 22:59:00,68.3,66.5,29.79,NW,309,1.0,3.0,94,0.00,,,1.07,Wunderground v.1.13,2013-07-08 03:59:00,
2013-07-07 23:00:00,68.4,66.6,29.79,NNE,15,1.0,4.0,94,0.00,,,1.07,Wunderground v.1.13,2013-07-08 04:00:00,
2013-07-07 23:01:00,68.4,66.6,29.79,NNE,20,2.0,6.0,94,0.00,,,1.07,Wunderground v.1.13,2013-07-08 04:01:00,
2013-07-07 23:02:00,68.5,66.7,29.78,NNE,29,2.0,7.0,94,0.00,,,1.07,Wunderground v.1.13,2013-07-08 04:02:00,
2013-07-07 23:06:00,68.6,66.8,29.79,NNE,17,4.0,5.0,94,0.00,,,1.07,Wunderground v.1.13,2013-07-08 04:06:00,
2013-07-07 23:07:00,68.6,66.8,29.79,NW,310,4.0,5.0,94,0.00,,,1.07,Wunderground v.1.13,2013-07-08 04:07:00,
2013-07-07 23:10:00,68.5,66.7,29.79,NNW,329,4.0,4.0,94,0.00,,,1.07,Wunderground v.1.13,2013-07-08 04:10:00,
2013-07-07 23:11:00,68.5,66.7,29.79,NNE,14,4.0,6.0,94,0.00,,,1.07,Wunderground v.1.13,2013-07-08 04:11:00,
2013-07-07 23:13:00,68.5,66.7,29.79,NNE,13,4.0,8.0,94,0.00,,,1.07,Wunderground v.1.13,2013-07-08 04:13:00,
2013-07-07 23:15:00,68.6,66.8,29.79,NE,34,4.0,6.0,94,0.00,,,1.07,Wunderground v.1.13,2013-07-08 04:15:00,
2013-07-07 23:16:00,68.7,66.9,29.79,NNE,26,4.0,8.0,94,0.00,,,1.07,Wunderground v.1.13,2013-07-08 04:16:00,
2013-07-07 23:17:00,68.7,66.9,29.79,NE,35,4.0,8.0,94,0.00,,,1.07,Wunderground v.1.13,2013-07-08 04:17:00,
2013-07-07 23:21:00,68.7,66.9,29.79,NNE,28,6.0,7.0,94,0.00,,,1.07,Wunderground v.1.13,2013-07-08 04:21:00,
2013-07-07 23:23:00,68.7,66.9,29.80,NNE,25,6.0,7.0,94,0.00,,,1.07,Wunderground v.1.13,2013-07-08 04:23:00,
2013-07-07 23:24:00,68.7,66.9,29.80,NNE,26,6.0,7.0,94,0.00,,,1.07,Wunderground v.1.13,2013-07-08 04:24:00,
2013-07-07 23:26:00,68.6,66.8,29.80,NNE,25,5.0,7.0,94,0.00,,,1.07,Wunderground v.1.13,2013-07-08 04:26:00,
2013-07-07 23:27:00,68.5,66.7,29.80,NNE,25,5.0,7.0,94,0.00,,,1.07,Wunderground v.1.13,2013-07-08 04:27:00,
2013-07-07 23:29:00,68.4,66.6,29.80,NNE,26,4.0,7.0,94,0.00,,,1.07,Wunderground v.1.13,2013-07-08 04:29:00,
2013-07-07 23:31:00,68.3,66.5,29.80,NNE,25,3.0,4.0,94,0.00,,,1.07,Wunderground v.1.13,2013-07-08 04:31:00,
2013-07-07 23:34:00,68.1,66.3,29.80,NNE,26,3.0,6.0,94,0.00,,,1.07,Wunderground v.1.13,2013-07-08 04:34:00,
2013-07-07 23:37:00,68.0,66.2,29.80,NW,319,2.0,3.0,94,0.00,,,1.07,Wunderground v.1.13,2013-07-08 04:37:00,
2013-07-07 23:38:00,68.0,66.2,29.80,NW,322,2.0,3.0,94,0.00,,,1.07,Wunderground v.1.13,2013-07-08 04:38:00,
2013-07-07 23:39:00,67.9,66.1,29.80,NW,322,2.0,3.0,94,0.00,,,1.07,Wunderground v.1.13,2013-07-08 04:39:00,
2013-07-07 23:41:00,67.8,66.0,29.80,NNE,18,2.0,6.0,94,0.00,,,1.07,Wunderground v.1.13,2013-07-08 04:41:00,
2013-07-07 23:42:00,67.7,65.9,29.80,NNE,21,2.0,6.0,94,0.00,,,1.07,Wunderground v.1.13,2013-07-08 04:42:00,
2013-07-07 23:43:00,67.7,65.9,29.80,NNE,21,2.0,6.0,94,0.00,,,1.07,Wunderground v.1.13,2013-07-08 04:43:00,
2013-07-07 23:47:00,67.5,65.7,29.80,NNE,21,2.0,5.0,94,0.00,,,1.07,Wunderground v.1.13,2013-07-08 04:47:00,
2013-07-07 23:48:00,67.4,65.6,29.80,North,9,2.0,6.0,94,0.00,,,1.07,Wunderground v.1.13,2013-07-08 04:48:00,
2013-07-07 23:50:00,67.3,65.5,29.80,NNE,13,3.0,3.0,94,0.00,,,1.07,Wunderground v.1.13,2013-07-08 04:50:00,
2013-07-07 23:53:00,67.2,65.4,29.80,NNE,13,2.0,4.0,94,0.00,,,1.07,Wunderground v.1.13,2013-07-08 04:53:00,
2013-07-07 23:54:00,67.2,65.4,29.80,NNE,13,2.0,4.0,94,0.00,,,1.07,Wunderground v.1.13,2013-07-08 04:54:00,
2013-07-07 23:55:00,67.2,65.4,29.80,NNE,15,2.0,3.0,94,0.00,,,1.07,Wunderground v.1.13,2013-07-08 04:55:00,
2013-07-07 23:56:00,67.2,65.4,29.80,NNE,15,2.0,3.0,94,0.00,,,1.07,Wunderground v.1.13,2013-07-08 04:56:00,
2013-07-07 23:57:00,67.2,65.4,29.80,NW,315,2.0,3.0,94,0.00,,,1.07,Wunderground v.1.13,2013-07-08 04:57:00,